Wetterdaten: Montag, 18.03.2013
Datum Zeit Temp. Aussen +5cm Feuchte Auss Luftdruck Regen Sonnenschein Regendauer UV Solar Windben
18.03.2013 00:00 4,4 C 2,9 C 93 % 992,5 hPa 0,0 l/m 0 min 0 min 0,0 UV-I 0 W/m 15,4 km/h (3 Bft)
18.03.2013 00:02 4,4 C 2,9 C 93 % 992,5 hPa 0,0 l/m 0 min 0 min 0,0 UV-I 0 W/m 18,0 km/h (3 Bft)
18.03.2013 00:04 4,4 C 2,9 C 93 % 992,7 hPa 0,0 l/m 0 min 0 min 0,0 UV-I 0 W/m 12,9 km/h (3 Bft)
18.03.2013 00:06 4,4 C 2,9 C 93 % 992,7 hPa 0,0 l/m 0 min 0 min 0,0 UV-I 0 W/m 18,0 km/h (3 Bft)
18.03.2013 00:08 4,4 C 2,9 C 92 % 992,7 hPa 0,0 l/m 0 min 0 min 0,0 UV-I 0 W/m 12,9 km/h (3 Bft)
18.03.2013 00:10 4,4 C 2,9 C 92 % 992,7 hPa 0,0 l/m 0 min 0 min 0,0 UV-I 0 W/m 15,4 km/h (3 Bft)
18.03.2013 00:12 4,4 C 2,9 C 92 % 992,8 hPa 0,0 l/m 0 min 0 min 0,0 UV-I 0 W/m 18,0 km/h (3 Bft)
18.03.2013 00:14 4,4 C 2,9 C 92 % 992,9 hPa 0,0 l/m 0 min 0 min 0,0 UV-I 0 W/m 15,4 km/h (3 Bft)
18.03.2013 00:16 4,4 C 2,9 C 92 % 993,0 hPa 0,0 l/m 0 min 0 min 0,0 UV-I 0 W/m 25,7 km/h (4 Bft)
18.03.2013 00:18 4,4 C 2,9 C 92 % 993,0 hPa 0,0 l/m 0 min 0 min 0,0 UV-I 0 W/m 12,9 km/h (3 Bft)
18.03.2013 00:20 4,4 C 2,9 C 92 % 993,0 hPa 0,0 l/m 0 min 0 min 0,0 UV-I 0 W/m 28,3 km/h (4 Bft)
18.03.2013 00:22 4,4 C 2,9 C 92 % 993,0 hPa 0,0 l/m 0 min 0 min 0,0 UV-I 0 W/m 18,0 km/h (3 Bft)
18.03.2013 00:24 4,4 C 2,9 C 92 % 993,0 hPa 0,0 l/m 0 min 0 min 0,0 UV-I 0 W/m 25,7 km/h (4 Bft)
18.03.2013 00:26 4,4 C 2,9 C 92 % 993,1 hPa 0,0 l/m 0 min 0 min 0,0 UV-I 0 W/m 15,4 km/h (3 Bft)
18.03.2013 00:28 4,4 C 2,9 C 92 % 993,0 hPa 0,0 l/m 0 min 0 min 0,0 UV-I 0 W/m 23,2 km/h (4 Bft)
18.03.2013 00:30 4,5 C 2,9 C 91 % 993,0 hPa 0,0 l/m 0 min 0 min 0,0 UV-I 0 W/m 18,0 km/h (3 Bft)
18.03.2013 00:32 4,5 C 2,9 C 91 % 993,0 hPa 0,0 l/m 0 min 0 min 0,0 UV-I 0 W/m 20,6 km/h (4 Bft)
18.03.2013 00:34 4,5 C 2,9 C 91 % 993,0 hPa 0,0 l/m 0 min 0 min 0,0 UV-I 0 W/m 20,6 km/h (4 Bft)
18.03.2013 00:36 4,5 C 2,9 C 91 % 993,0 hPa 0,0 l/m 0 min 0 min 0,0 UV-I 0 W/m 25,7 km/h (4 Bft)
18.03.2013 00:38 4,5 C 2,9 C 91 % 992,9 hPa 0,0 l/m 0 min 0 min 0,0 UV-I 0 W/m 25,7 km/h (4 Bft)
18.03.2013 00:40 4,6 C 2,9 C 91 % 992,9 hPa 0,0 l/m 0 min 0 min 0,0 UV-I 0 W/m 20,6 km/h (4 Bft)
18.03.2013 00:42 4,6 C 2,9 C 90 % 992,9 hPa 0,0 l/m 0 min 0 min 0,0 UV-I 0 W/m 10,3 km/h (2 Bft)
18.03.2013 00:44 4,6 C 2,9 C 90 % 992,9 hPa 0,0 l/m 0 min 0 min 0,0 UV-I 0 W/m 12,9 km/h (3 Bft)
18.03.2013 00:46 4,6 C 2,9 C 90 % 992,8 hPa 0,0 l/m 0 min 0 min 0,0 UV-I 0 W/m 23,2 km/h (4 Bft)
18.03.2013 00:48 4,6 C 2,9 C 90 % 992,9 hPa 0,0 l/m 0 min 0 min 0,0 UV-I 0 W/m 12,9 km/h (3 Bft)
18.03.2013 00:50 4,6 C 2,9 C 90 % 992,9 hPa 0,0 l/m 0 min 0 min 0,0 UV-I 0 W/m 18,0 km/h (3 Bft)
18.03.2013 00:52 4,6 C 2,9 C 90 % 993,0 hPa 0,0 l/m 0 min 0 min 0,0 UV-I 0 W/m 12,9 km/h (3 Bft)
18.03.2013 00:54 4,6 C 2,9 C 90 % 992,9 hPa 0,0 l/m 0 min 0 min 0,0 UV-I 0 W/m 10,3 km/h (2 Bft)
18.03.2013 00:56 4,6 C 2,9 C 90 % 992,9 hPa 0,0 l/m 0 min 0 min 0,0 UV-I 0 W/m 15,4 km/h (3 Bft)
18.03.2013 00:58 4,6 C 2,9 C 90 % 993,0 hPa 0,0 l/m 0 min 0 min 0,0 UV-I 0 W/m 12,9 km/h (3 Bft)
18.03.2013 01:00 4,6 C 2,9 C 90 % 992,9 hPa 0,0 l/m 0 min 0 min 0,0 UV-I 0 W/m 12,9 km/h (3 Bft)
18.03.2013 01:02 4,6 C 2,9 C 90 % 992,9 hPa 0,0 l/m 0 min 0 min 0,0 UV-I 0 W/m 10,3 km/h (2 Bft)
18.03.2013 01:04 4,6 C 2,9 C 90 % 993,0 hPa 0,0 l/m 0 min 0 min 0,0 UV-I 0 W/m 12,9 km/h (3 Bft)
18.03.2013 01:06 4,6 C 2,9 C 90 % 993,0 hPa 0,0 l/m 0 min 0 min 0,0 UV-I 0 W/m 5,1 km/h (1 Bft)
18.03.2013 01:08 4,6 C 2,9 C 90 % 993,1 hPa 0,0 l/m 0 min 0 min 0,0 UV-I 0 W/m 12,9 km/h (3 Bft)
18.03.2013 01:10 4,6 C 2,9 C 90 % 993,0 hPa 0,0 l/m 0 min 0 min 0,0 UV-I 0 W/m 12,9 km/h (3 Bft)
18.03.2013 01:12 4,6 C 2,9 C 90 % 993,0 hPa 0,0 l/m 0 min 0 min 0,0 UV-I 0 W/m 12,9 km/h (3 Bft)
18.03.2013 01:14 4,6 C 2,9 C 90 % 993,0 hPa 0,0 l/m 0 min 0 min 0,0 UV-I 0 W/m 12,9 km/h (3 Bft)
18.03.2013 01:16 4,6 C 2,9 C 90 % 993,0 hPa 0,0 l/m 0 min 0 min 0,0 UV-I 0 W/m 18,0 km/h (3 Bft)
18.03.2013 01:18 4,6 C 2,9 C 90 % 992,9 hPa 0,0 l/m 0 min 0 min 0,0 UV-I 0 W/m 12,9 km/h (3 Bft)
18.03.2013 01:20 4,6 C 2,9 C 90 % 993,0 hPa 0,0 l/m 0 min 0 min 0,0 UV-I 0 W/m 2,6 km/h (1 Bft)
18.03.2013 01:22 4,5 C 2,9 C 90 % 993,0 hPa 0,0 l/m 0 min 0 min 0,0 UV-I 0 W/m 15,4 km/h (3 Bft)
18.03.2013 01:24 4,6 C 2,9 C 90 % 993,0 hPa 0,0 l/m 0 min 0 min 0,0 UV-I 0 W/m 12,9 km/h (3 Bft)
18.03.2013 01:26 4,5 C 2,9 C 90 % 993,1 hPa 0,0 l/m 0 min 0 min 0,0 UV-I 0 W/m 12,9 km/h (3 Bft)
18.03.2013 01:28 4,5 C 2,9 C 90 % 993,0 hPa 0,0 l/m 0 min 0 min 0,0 UV-I 0 W/m 15,4 km/h (3 Bft)
18.03.2013 01:30 4,5 C 2,9 C 90 % 993,0 hPa 0,0 l/m 0 min 0 min 0,0 UV-I 0 W/m 15,4 km/h (3 Bft)
18.03.2013 01:32 4,5 C 2,9 C 89 % 993,0 hPa 0,0 l/m 0 min 0 min 0,0 UV-I 0 W/m 15,4 km/h (3 Bft)
18.03.2013 01:34 4,5 C 2,9 C 89 % 993,0 hPa 0,0 l/m 0 min 0 min 0,0 UV-I 0 W/m 10,3 km/h (2 Bft)
18.03.2013 01:36 4,4 C 2,9 C 89 % 993,0 hPa 0,0 l/m 0 min 0 min 0,0 UV-I 0 W/m 18,0 km/h (3 Bft)
18.03.2013 01:38 4,4 C 2,9 C 89 % 993,0 hPa 0,0 l/m 0 min 0 min 0,0 UV-I 0 W/m 10,3 km/h (2 Bft)
18.03.2013 01:40 4,4 C 2,9 C 89 % 993,0 hPa 0,0 l/m 0 min 0 min 0,0 UV-I 0 W/m 10,3 km/h (2 Bft)
18.03.2013 01:42 4,4 C 2,9 C 89 % 993,0 hPa 0,0 l/m 0 min 0 min 0,0 UV-I 0 W/m 15,4 km/h (3 Bft)
18.03.2013 01:44 4,4 C 2,9 C 89 % 993,0 hPa 0,0 l/m 0 min 0 min 0,0 UV-I 0 W/m 5,1 km/h (1 Bft)
18.03.2013 01:46 4,4 C 2,9 C 89 % 993,0 hPa 0,0 l/m 0 min 0 min 0,0 UV-I 0 W/m 12,9 km/h (3 Bft)
18.03.2013 01:48 4,4 C 2,9 C 89 % 993,0 hPa 0,0 l/m 0 min 0 min 0,0 UV-I 0 W/m 15,4 km/h (3 Bft)
18.03.2013 01:50 4,4 C 2,9 C 89 % 993,0 hPa 0,0 l/m 0 min 0 min 0,0 UV-I 0 W/m 12,9 km/h (3 Bft)
18.03.2013 01:52 4,4 C 2,9 C 89 % 993,0 hPa 0,0 l/m 0 min 0 min 0,0 UV-I 0 W/m 10,3 km/h (2 Bft)
18.03.2013 01:54 4,4 C 2,9 C 89 % 993,0 hPa 0,0 l/m 0 min 0 min 0,0 UV-I 0 W/m 10,3 km/h (2 Bft)
18.03.2013 01:56 4,4 C 2,9 C 89 % 993,0 hPa 0,0 l/m 0 min 0 min 0,0 UV-I 0 W/m 12,9 km/h (3 Bft)
18.03.2013 01:58 4,4 C 2,9 C 89 % 992,9 hPa 0,0 l/m 0 min 0 min 0,0 UV-I 0 W/m 12,9 km/h (3 Bft)
18.03.2013 02:00 4,4 C 2,9 C 89 % 993,0 hPa 0,0 l/m 0 min 0 min 0,0 UV-I 0 W/m 15,4 km/h (3 Bft)
18.03.2013 02:02 4,4 C 2,9 C 89 % 992,9 hPa 0,0 l/m 0 min 0 min 0,0 UV-I 0 W/m 15,4 km/h (3 Bft)
18.03.2013 02:04 4,4 C 2,9 C 89 % 992,9 hPa 0,0 l/m 0 min 0 min 0,0 UV-I 0 W/m 12,9 km/h (3 Bft)
18.03.2013 02:06 4,4 C 2,9 C 89 % 992,9 hPa 0,0 l/m 0 min 0 min 0,0 UV-I 0 W/m 7,7 km/h (2 Bft)
18.03.2013 02:08 4,4 C 2,9 C 89 % 992,9 hPa 0,0 l/m 0 min 0 min 0,0 UV-I 0 W/m 7,7 km/h (2 Bft)
18.03.2013 02:10 4,4 C 2,9 C 89 % 992,9 hPa 0,0 l/m 0 min 0 min 0,0 UV-I 0 W/m 10,3 km/h (2 Bft)
18.03.2013 02:12 4,4 C 2,9 C 89 % 993,0 hPa 0,0 l/m 0 min 0 min 0,0 UV-I 0 W/m 7,7 km/h (2 Bft)
18.03.2013 02:14 4,4 C 2,9 C 89 % 992,9 hPa 0,0 l/m 0 min 0 min 0,0 UV-I 0 W/m 7,7 km/h (2 Bft)
18.03.2013 02:16 4,4 C 2,9 C 90 % 992,9 hPa 0,0 l/m 0 min 0 min 0,0 UV-I 0 W/m 10,3 km/h (2 Bft)
18.03.2013 02:18 4,3 C 2,9 C 90 % 992,9 hPa 0,0 l/m 0 min 0 min 0,0 UV-I 0 W/m 2,6 km/h (1 Bft)
18.03.2013 02:20 4,3 C 2,9 C 90 % 993,0 hPa 0,0 l/m 0 min 0 min 0,0 UV-I 0 W/m 7,7 km/h (2 Bft)
18.03.2013 02:22 4,3 C 2,9 C 90 % 992,9 hPa 0,0 l/m 0 min 0 min 0,0 UV-I 0 W/m 5,1 km/h (1 Bft)
18.03.2013 02:24 4,3 C 2,9 C 90 % 992,9 hPa 0,0 l/m 0 min 0 min 0,0 UV-I 0 W/m 2,6 km/h (1 Bft)
18.03.2013 02:26 4,3 C 2,9 C 90 % 992,9 hPa 0,0 l/m 0 min 0 min 0,0 UV-I 0 W/m 5,1 km/h (1 Bft)
18.03.2013 02:28 4,3 C 2,9 C 90 % 992,9 hPa 0,0 l/m 0 min 0 min 0,0 UV-I 0 W/m 5,1 km/h (1 Bft)
18.03.2013 02:30 4,3 C 2,9 C 90 % 992,9 hPa 0,0 l/m 0 min 0 min 0,0 UV-I 0 W/m 7,7 km/h (2 Bft)
18.03.2013 02:32 4,3 C 2,9 C 90 % 992,9 hPa 0,0 l/m 0 min 0 min 0,0 UV-I 0 W/m 7,7 km/h (2 Bft)
18.03.2013 02:34 4,3 C 2,9 C 90 % 992,9 hPa 0,0 l/m 0 min 0 min 0,0 UV-I 0 W/m 10,3 km/h (2 Bft)
18.03.2013 02:36 4,3 C 2,9 C 90 % 992,9 hPa 0,0 l/m 0 min 0 min 0,0 UV-I 0 W/m 10,3 km/h (2 Bft)
18.03.2013 02:38 4,3 C 2,9 C 90 % 992,9 hPa 0,0 l/m 0 min 0 min 0,0 UV-I 0 W/m 5,1 km/h (1 Bft)
18.03.2013 02:40 4,3 C 2,9 C 90 % 992,9 hPa 0,0 l/m 0 min 0 min 0,0 UV-I 0 W/m 10,3 km/h (2 Bft)
18.03.2013 02:42 4,3 C 2,9 C 90 % 993,0 hPa 0,0 l/m 0 min 0 min 0,0 UV-I 0 W/m 12,9 km/h (3 Bft)
18.03.2013 02:44 4,3 C 2,9 C 90 % 992,9 hPa 0,0 l/m 0 min 0 min 0,0 UV-I 0 W/m 15,4 km/h (3 Bft)
18.03.2013 02:46 4,3 C 3,4 C 90 % 992,9 hPa 0,0 l/m 0 min 0 min 0,0 UV-I 0 W/m 7,7 km/h (2 Bft)
18.03.2013 02:48 4,3 C 3,4 C 90 % 992,9 hPa 0,0 l/m 0 min 0 min 0,0 UV-I 0 W/m 5,1 km/h (1 Bft)
18.03.2013 02:50 4,3 C 3,4 C 90 % 992,8 hPa 0,0 l/m 0 min 0 min 0,0 UV-I 0 W/m 2,6 km/h (1 Bft)
18.03.2013 02:52 4,3 C 3,4 C 90 % 992,9 hPa 0,0 l/m 0 min 0 min 0,0 UV-I 0 W/m 0,0 km/h (0 Bft)
18.03.2013 02:54 4,3 C 3,4 C 90 % 992,9 hPa 0,0 l/m 0 min 0 min 0,0 UV-I 0 W/m 7,7 km/h (2 Bft)
18.03.2013 02:56 4,3 C 3,4 C 90 % 992,9 hPa 0,0 l/m 0 min 0 min 0,0 UV-I 0 W/m 0,0 km/h (0 Bft)
18.03.2013 02:58 4,3 C 2,9 C 90 % 993,0 hPa 0,0 l/m 0 min 0 min 0,0 UV-I 0 W/m 2,6 km/h (1 Bft)
18.03.2013 03:00 4,4 C 2,9 C 90 % 992,9 hPa 0,0 l/m 0 min 0 min 0,0 UV-I 0 W/m 15,4 km/h (3 Bft)
18.03.2013 03:02 4,4 C 2,9 C 89 % 992,9 hPa 0,0 l/m 0 min 0 min 0,0 UV-I 0 W/m 7,7 km/h (2 Bft)
18.03.2013 03:04 4,4 C 3,4 C 89 % 992,9 hPa 0,0 l/m 0 min 0 min 0,0 UV-I 0 W/m 12,9 km/h (3 Bft)
18.03.2013 03:06 4,4 C 3,4 C 89 % 992,9 hPa 0,0 l/m 0 min 0 min 0,0 UV-I 0 W/m 10,3 km/h (2 Bft)
18.03.2013 03:08 4,4 C 3,4 C 89 % 992,9 hPa 0,0 l/m 0 min 0 min 0,0 UV-I 0 W/m 10,3 km/h (2 Bft)
18.03.2013 03:10 4,4 C 3,4 C 89 % 992,8 hPa 0,0 l/m 0 min 0 min 0,0 UV-I 0 W/m 10,3 km/h (2 Bft)
18.03.2013 03:12 4,4 C 3,4 C 89 % 992,8 hPa 0,0 l/m 0 min 0 min 0,0 UV-I 0 W/m 12,9 km/h (3 Bft)
18.03.2013 03:14 4,4 C 3,4 C 89 % 992,8 hPa 0,0 l/m 0 min 0 min 0,0 UV-I 0 W/m 5,1 km/h (1 Bft)
18.03.2013 03:16 4,4 C 3,4 C 89 % 992,9 hPa 0,0 l/m 0 min 0 min 0,0 UV-I 0 W/m 12,9 km/h (3 Bft)
18.03.2013 03:18 4,4 C 3,4 C 89 % 992,8 hPa 0,0 l/m 0 min 0 min 0,0 UV-I 0 W/m 5,1 km/h (1 Bft)
18.03.2013 03:20 4,4 C 3,4 C 89 % 992,8 hPa 0,0 l/m 0 min 0 min 0,0 UV-I 0 W/m 5,1 km/h (1 Bft)
18.03.2013 03:22 4,4 C 3,4 C 88 % 992,9 hPa 0,0 l/m 0 min 0 min 0,0 UV-I 0 W/m 7,7 km/h (2 Bft)
18.03.2013 03:24 4,4 C 2,9 C 88 % 992,8 hPa 0,0 l/m 0 min 0 min 0,0 UV-I 0 W/m 0,0 km/h (0 Bft)
18.03.2013 03:26 4,4 C 2,9 C 88 % 992,8 hPa 0,0 l/m 0 min 0 min 0,0 UV-I 0 W/m 7,7 km/h (2 Bft)
18.03.2013 03:28 4,4 C 2,9 C 88 % 992,8 hPa 0,0 l/m 0 min 0 min 0,0 UV-I 0 W/m 20,6 km/h (4 Bft)
18.03.2013 03:30 4,4 C 2,9 C 88 % 992,8 hPa 0,0 l/m 0 min 0 min 0,0 UV-I 0 W/m 10,3 km/h (2 Bft)
18.03.2013 03:32 4,4 C 2,9 C 88 % 992,9 hPa 0,0 l/m 0 min 0 min 0,0 UV-I 0 W/m 7,7 km/h (2 Bft)
18.03.2013 03:34 4,4 C 2,9 C 87 % 992,9 hPa 0,0 l/m 0 min 0 min 0,0 UV-I 0 W/m 5,1 km/h (1 Bft)
18.03.2013 03:36 4,4 C 2,9 C 87 % 992,9 hPa 0,0 l/m 0 min 0 min 0,0 UV-I 0 W/m 10,3 km/h (2 Bft)
18.03.2013 03:38 4,4 C 2,9 C 87 % 992,9 hPa 0,0 l/m 0 min 0 min 0,0 UV-I 0 W/m 10,3 km/h (2 Bft)
18.03.2013 03:40 4,4 C 2,9 C 87 % 992,9 hPa 0,0 l/m 0 min 0 min 0,0 UV-I 0 W/m 12,9 km/h (3 Bft)
18.03.2013 03:42 4,4 C 2,9 C 87 % 992,9 hPa 0,0 l/m 0 min 0 min 0,0 UV-I 0 W/m 12,9 km/h (3 Bft)
18.03.2013 03:44 4,4 C 2,9 C 87 % 992,9 hPa 0,0 l/m 0 min 0 min 0,0 UV-I 0 W/m 12,9 km/h (3 Bft)
18.03.2013 03:46 4,3 C 2,9 C 87 % 992,9 hPa 0,0 l/m 0 min 0 min 0,0 UV-I 0 W/m 10,3 km/h (2 Bft)
18.03.2013 03:48 4,3 C 2,3 C 87 % 992,9 hPa 0,0 l/m 0 min 0 min 0,0 UV-I 0 W/m 15,4 km/h (3 Bft)
18.03.2013 03:50 4,3 C 2,3 C 87 % 992,9 hPa 0,0 l/m 0 min 0 min 0,0 UV-I 0 W/m 7,7 km/h (2 Bft)
18.03.2013 03:52 4,3 C 2,3 C 87 % 993,0 hPa 0,0 l/m 0 min 0 min 0,0 UV-I 0 W/m 5,1 km/h (1 Bft)
18.03.2013 03:54 4,3 C 2,3 C 87 % 992,9 hPa 0,0 l/m 0 min 0 min 0,0 UV-I 0 W/m 5,1 km/h (1 Bft)
18.03.2013 03:56 4,3 C 2,3 C 87 % 993,0 hPa 0,0 l/m 0 min 0 min 0,0 UV-I 0 W/m 0,0 km/h (0 Bft)
18.03.2013 03:58 4,2 C 2,3 C 87 % 993,0 hPa 0,0 l/m 0 min 0 min 0,0 UV-I 0 W/m 7,7 km/h (2 Bft)
18.03.2013 04:00 4,2 C 2,3 C 87 % 993,0 hPa 0,0 l/m 0 min 0 min 0,0 UV-I 0 W/m 5,1 km/h (1 Bft)
18.03.2013 04:02 4,2 C 2,3 C 87 % 993,0 hPa 0,0 l/m 0 min 0 min 0,0 UV-I 0 W/m 0,0 km/h (0 Bft)
18.03.2013 04:04 4,2 C 2,3 C 87 % 993,0 hPa 0,0 l/m 0 min 0 min 0,0 UV-I 0 W/m 7,7 km/h (2 Bft)
18.03.2013 04:06 4,1 C 2,3 C 87 % 993,0 hPa 0,0 l/m 0 min 0 min 0,0 UV-I 0 W/m 0,0 km/h (0 Bft)
18.03.2013 04:08 4,1 C 2,3 C 87 % 993,0 hPa 0,0 l/m 0 min 0 min 0,0 UV-I 0 W/m 5,1 km/h (1 Bft)
18.03.2013 04:10 4,1 C 2,3 C 87 % 993,0 hPa 0,0 l/m 0 min 0 min 0,0 UV-I 0 W/m 0,0 km/h (0 Bft)
18.03.2013 04:12 4,1 C 2,3 C 87 % 993,0 hPa 0,0 l/m 0 min 0 min 0,0 UV-I 0 W/m 2,6 km/h (1 Bft)
18.03.2013 04:14 4,0 C 1,8 C 87 % 993,2 hPa 0,0 l/m 0 min 0 min 0,0 UV-I 0 W/m 5,1 km/h (1 Bft)
18.03.2013 04:16 4,0 C 1,8 C 87 % 993,1 hPa 0,0 l/m 0 min 0 min 0,0 UV-I 0 W/m 0,0 km/h (0 Bft)
18.03.2013 04:18 3,9 C 1,8 C 87 % 993,1 hPa 0,0 l/m 0 min 0 min 0,0 UV-I 0 W/m 5,1 km/h (1 Bft)
18.03.2013 04:20 3,9 C 2,3 C 87 % 993,1 hPa 0,0 l/m 0 min 0 min 0,0 UV-I 0 W/m 7,7 km/h (2 Bft)
18.03.2013 04:22 3,9 C 2,3 C 87 % 993,1 hPa 0,0 l/m 0 min 0 min 0,0 UV-I 0 W/m 2,6 km/h (1 Bft)
18.03.2013 04:24 3,9 C 2,3 C 87 % 993,1 hPa 0,0 l/m 0 min 0 min 0,0 UV-I 0 W/m 12,9 km/h (3 Bft)
18.03.2013 04:26 3,8 C 2,3 C 87 % 993,1 hPa 0,0 l/m 0 min 0 min 0,0 UV-I 0 W/m 7,7 km/h (2 Bft)
18.03.2013 04:28 3,8 C 2,3 C 87 % 993,2 hPa 0,0 l/m 0 min 0 min 0,0 UV-I 0 W/m 10,3 km/h (2 Bft)
18.03.2013 04:30 3,8 C 2,3 C 87 % 993,1 hPa 0,0 l/m 0 min 0 min 0,0 UV-I 0 W/m 7,7 km/h (2 Bft)
18.03.2013 04:32 3,8 C 2,3 C 87 % 993,2 hPa 0,0 l/m 0 min 0 min 0,0 UV-I 0 W/m 5,1 km/h (1 Bft)
18.03.2013 04:34 3,8 C 2,3 C 87 % 993,2 hPa 0,0 l/m 0 min 0 min 0,0 UV-I 0 W/m 10,3 km/h (2 Bft)
18.03.2013 04:36 3,8 C 2,3 C 87 % 993,3 hPa 0,0 l/m 0 min 0 min 0,0 UV-I 0 W/m 10,3 km/h (2 Bft)
18.03.2013 04:38 3,8 C 2,3 C 87 % 993,2 hPa 0,0 l/m 0 min 0 min 0,0 UV-I 0 W/m 10,3 km/h (2 Bft)
18.03.2013 04:40 3,8 C 2,3 C 87 % 993,2 hPa 0,0 l/m 0 min 0 min 0,0 UV-I 0 W/m 2,6 km/h (1 Bft)
18.03.2013 04:42 3,8 C 2,3 C 87 % 993,3 hPa 0,0 l/m 0 min 0 min 0,0 UV-I 0 W/m 5,1 km/h (1 Bft)
18.03.2013 04:44 3,8 C 2,3 C 87 % 993,2 hPa 0,0 l/m 0 min 0 min 0,0 UV-I 0 W/m 0,0 km/h (0 Bft)
18.03.2013 04:46 3,8 C 2,3 C 87 % 993,2 hPa 0,0 l/m 0 min 0 min 0,0 UV-I 0 W/m 10,3 km/h (2 Bft)
18.03.2013 04:48 3,8 C 2,3 C 87 % 993,2 hPa 0,0 l/m 0 min 0 min 0,0 UV-I 0 W/m 10,3 km/h (2 Bft)
18.03.2013 04:50 3,8 C 2,3 C 87 % 993,3 hPa 0,0 l/m 0 min 0 min 0,0 UV-I 0 W/m 15,4 km/h (3 Bft)
18.03.2013 04:52 3,8 C 2,3 C 87 % 993,3 hPa 0,0 l/m 0 min 0 min 0,0 UV-I 0 W/m 2,6 km/h (1 Bft)
18.03.2013 04:54 3,8 C 2,3 C 87 % 993,3 hPa 0,0 l/m 0 min 0 min 0,0 UV-I 0 W/m 5,1 km/h (1 Bft)
18.03.2013 04:56 3,8 C 2,3 C 87 % 993,3 hPa 0,0 l/m 0 min 0 min 0,0 UV-I 0 W/m 7,7 km/h (2 Bft)
18.03.2013 04:58 3,8 C 2,3 C 87 % 993,3 hPa 0,0 l/m 0 min 0 min 0,0 UV-I 0 W/m 12,9 km/h (3 Bft)
18.03.2013 05:00 3,8 C 2,3 C 86 % 993,3 hPa 0,0 l/m 0 min 0 min 0,0 UV-I 0 W/m 18,0 km/h (3 Bft)
18.03.2013 05:02 3,8 C 2,3 C 86 % 993,4 hPa 0,0 l/m 0 min 0 min 0,0 UV-I 0 W/m 10,3 km/h (2 Bft)
18.03.2013 05:04 3,8 C 2,3 C 86 % 993,4 hPa 0,0 l/m 0 min 0 min 0,0 UV-I 0 W/m 12,9 km/h (3 Bft)
18.03.2013 05:06 3,8 C 2,3 C 86 % 993,4 hPa 0,0 l/m 0 min 0 min 0,0 UV-I 0 W/m 7,7 km/h (2 Bft)
18.03.2013 05:08 3,8 C 2,3 C 86 % 993,4 hPa 0,0 l/m 0 min 0 min 0,0 UV-I 0 W/m 12,9 km/h (3 Bft)
18.03.2013 05:10 3,8 C 2,3 C 85 % 993,4 hPa 0,0 l/m 0 min 0 min 0,0 UV-I 0 W/m 15,4 km/h (3 Bft)
18.03.2013 05:12 3,8 C 2,3 C 85 % 993,5 hPa 0,0 l/m 0 min 0 min 0,0 UV-I 0 W/m 10,3 km/h (2 Bft)
18.03.2013 05:14 3,8 C 2,3 C 85 % 993,4 hPa 0,0 l/m 0 min 0 min 0,0 UV-I 0 W/m 5,1 km/h (1 Bft)
18.03.2013 05:16 3,8 C 1,8 C 85 % 993,5 hPa 0,0 l/m 0 min 0 min 0,0 UV-I 0 W/m 7,7 km/h (2 Bft)
18.03.2013 05:18 3,8 C 1,8 C 85 % 993,5 hPa 0,0 l/m 0 min 0 min 0,0 UV-I 0 W/m 7,7 km/h (2 Bft)
18.03.2013 05:20 3,7 C 1,8 C 85 % 993,5 hPa 0,0 l/m 0 min 0 min 0,0 UV-I 0 W/m 10,3 km/h (2 Bft)
18.03.2013 05:22 3,7 C 1,8 C 85 % 993,6 hPa 0,0 l/m 0 min 0 min 0,0 UV-I 0 W/m 15,4 km/h (3 Bft)
18.03.2013 05:24 3,7 C 1,8 C 85 % 993,6 hPa 0,0 l/m 0 min 0 min 0,0 UV-I 0 W/m 12,9 km/h (3 Bft)
18.03.2013 05:26 3,7 C 1,8 C 85 % 993,6 hPa 0,0 l/m 0 min 0 min 0,0 UV-I 0 W/m 2,6 km/h (1 Bft)
18.03.2013 05:28 3,6 C 1,2 C 85 % 993,6 hPa 0,0 l/m 0 min 0 min 0,0 UV-I 0 W/m 5,1 km/h (1 Bft)
18.03.2013 05:30 3,6 C 1,2 C 85 % 993,6 hPa 0,0 l/m 0 min 0 min 0,0 UV-I 0 W/m 10,3 km/h (2 Bft)
18.03.2013 05:32 3,6 C 1,2 C 85 % 993,6 hPa 0,0 l/m 0 min 0 min 0,0 UV-I 0 W/m 10,3 km/h (2 Bft)
18.03.2013 05:34 3,5 C 1,2 C 85 % 993,6 hPa 0,0 l/m 0 min 0 min 0,0 UV-I 0 W/m 12,9 km/h (3 Bft)
18.03.2013 05:36 3,4 C 1,2 C 85 % 993,6 hPa 0,0 l/m 0 min 0 min 0,0 UV-I 0 W/m 15,4 km/h (3 Bft)
18.03.2013 05:38 3,4 C 1,2 C 86 % 993,6 hPa 0,0 l/m 0 min 0 min 0,0 UV-I 0 W/m 10,3 km/h (2 Bft)
18.03.2013 05:40 3,3 C 1,2 C 86 % 993,6 hPa 0,0 l/m 0 min 0 min 0,0 UV-I 0 W/m 10,3 km/h (2 Bft)
18.03.2013 05:42 3,3 C 0,7 C 86 % 993,6 hPa 0,0 l/m 0 min 0 min 0,0 UV-I 0 W/m 7,7 km/h (2 Bft)
18.03.2013 05:44 3,3 C 0,7 C 86 % 993,6 hPa 0,0 l/m 0 min 0 min 0,0 UV-I 0 W/m 7,7 km/h (2 Bft)
18.03.2013 05:46 3,2 C 0,7 C 86 % 993,6 hPa 0,0 l/m 0 min 0 min 0,0 UV-I 0 W/m 5,1 km/h (1 Bft)
18.03.2013 05:48 3,2 C 0,7 C 86 % 993,6 hPa 0,0 l/m 0 min 0 min 0,0 UV-I 0 W/m 18,0 km/h (3 Bft)
18.03.2013 05:50 3,1 C 0,7 C 86 % 993,6 hPa 0,0 l/m 0 min 0 min 0,0 UV-I 0 W/m 12,9 km/h (3 Bft)
18.03.2013 05:52 3,1 C 0,7 C 86 % 993,6 hPa 0,0 l/m 0 min 0 min 0,0 UV-I 0 W/m 2,6 km/h (1 Bft)
18.03.2013 05:54 3,1 C 0,7 C 87 % 993,7 hPa 0,0 l/m 0 min 0 min 0,0 UV-I 0 W/m 7,7 km/h (2 Bft)
18.03.2013 05:56 3,0 C 0,7 C 87 % 993,7 hPa 0,0 l/m 0 min 0 min 0,0 UV-I 0 W/m 15,4 km/h (3 Bft)
18.03.2013 05:58 2,9 C 0,7 C 87 % 993,6 hPa 0,0 l/m 0 min 0 min 0,0 UV-I 0 W/m 15,4 km/h (3 Bft)
18.03.2013 06:00 2,9 C 0,7 C 87 % 993,7 hPa 0,0 l/m 0 min 0 min 0,0 UV-I 0 W/m 5,1 km/h (1 Bft)
18.03.2013 06:02 2,8 C 0,7 C 87 % 993,7 hPa 0,0 l/m 0 min 0 min 0,0 UV-I 0 W/m 7,7 km/h (2 Bft)
18.03.2013 06:04 2,8 C 0,7 C 87 % 993,7 hPa 0,0 l/m 0 min 0 min 0,0 UV-I 0 W/m 7,7 km/h (2 Bft)
18.03.2013 06:06 2,8 C 0,7 C 87 % 993,7 hPa 0,0 l/m 0 min 0 min 0,0 UV-I 0 W/m 7,7 km/h (2 Bft)
18.03.2013 06:08 2,8 C 0,7 C 87 % 993,7 hPa 0,0 l/m 0 min 0 min 0,0 UV-I 0 W/m 5,1 km/h (1 Bft)
18.03.2013 06:10 2,7 C 0,7 C 87 % 993,7 hPa 0,0 l/m 0 min 0 min 0,0 UV-I 0 W/m 15,4 km/h (3 Bft)
18.03.2013 06:12 2,7 C 0,7 C 87 % 993,7 hPa 0,0 l/m 0 min 0 min 0,0 UV-I 0 W/m 7,7 km/h (2 Bft)
18.03.2013 06:14 2,7 C 0,7 C 87 % 993,7 hPa 0,0 l/m 0 min 0 min 0,0 UV-I 0 W/m 5,1 km/h (1 Bft)
18.03.2013 06:16 2,7 C 0,7 C 87 % 993,7 hPa 0,0 l/m 0 min 0 min 0,0 UV-I 0 W/m 10,3 km/h (2 Bft)
18.03.2013 06:18 2,6 C 0,7 C 87 % 993,7 hPa 0,0 l/m 0 min 0 min 0,0 UV-I 0 W/m 5,1 km/h (1 Bft)
18.03.2013 06:20 2,6 C 0,7 C 87 % 993,7 hPa 0,0 l/m 0 min 0 min 0,0 UV-I 0 W/m 10,3 km/h (2 Bft)
18.03.2013 06:22 2,6 C 0,7 C 88 % 993,7 hPa 0,0 l/m 0 min 0 min 0,0 UV-I 0 W/m 10,3 km/h (2 Bft)
18.03.2013 06:24 2,6 C 0,7 C 88 % 993,8 hPa 0,0 l/m 0 min 0 min 0,0 UV-I 0 W/m 10,3 km/h (2 Bft)
18.03.2013 06:26 2,6 C 0,7 C 88 % 993,7 hPa 0,0 l/m 0 min 0 min 0,0 UV-I 0 W/m 7,7 km/h (2 Bft)
18.03.2013 06:28 2,5 C 0,7 C 88 % 993,8 hPa 0,0 l/m 0 min 0 min 0,0 UV-I 0 W/m 12,9 km/h (3 Bft)
18.03.2013 06:30 2,5 C 0,7 C 88 % 993,8 hPa 0,0 l/m 0 min 0 min 0,0 UV-I 0 W/m 10,3 km/h (2 Bft)
18.03.2013 06:32 2,5 C 0,7 C 88 % 993,8 hPa 0,0 l/m 0 min 0 min 0,0 UV-I 0 W/m 12,9 km/h (3 Bft)
18.03.2013 06:34 2,5 C 0,7 C 88 % 993,9 hPa 0,0 l/m 0 min 0 min 0,0 UV-I 0 W/m 15,4 km/h (3 Bft)
18.03.2013 06:36 2,4 C 0,7 C 88 % 993,9 hPa 0,0 l/m 0 min 0 min 0,0 UV-I 0 W/m 10,3 km/h (2 Bft)
18.03.2013 06:38 2,4 C 0,7 C 88 % 993,9 hPa 0,0 l/m 0 min 0 min 0,0 UV-I 0 W/m 7,7 km/h (2 Bft)
18.03.2013 06:40 2,4 C 0,7 C 88 % 993,9 hPa 0,0 l/m 0 min 0 min 0,0 UV-I 0 W/m 10,3 km/h (2 Bft)
18.03.2013 06:42 2,4 C 0,7 C 88 % 993,9 hPa 0,0 l/m 0 min 0 min 0,0 UV-I 0 W/m 18,0 km/h (3 Bft)
18.03.2013 06:44 2,4 C 0,7 C 88 % 993,9 hPa 0,0 l/m 0 min 0 min 0,0 UV-I 0 W/m 7,7 km/h (2 Bft)
18.03.2013 06:46 2,4 C 0,7 C 88 % 993,9 hPa 0,0 l/m 0 min 0 min 0,0 UV-I 0 W/m 10,3 km/h (2 Bft)
18.03.2013 06:48 2,4 C 0,7 C 87 % 994,0 hPa 0,0 l/m 0 min 0 min 0,0 UV-I 5 W/m 7,7 km/h (2 Bft)
18.03.2013 06:50 2,4 C 0,7 C 87 % 993,9 hPa 0,0 l/m 0 min 0 min 0,0 UV-I 5 W/m 7,7 km/h (2 Bft)
18.03.2013 06:52 2,4 C 0,7 C 87 % 993,9 hPa 0,0 l/m 0 min 0 min 0,0 UV-I 5 W/m 7,7 km/h (2 Bft)
18.03.2013 06:54 2,4 C 0,7 C 87 % 994,0 hPa 0,0 l/m 0 min 0 min 0,0 UV-I 7 W/m 12,9 km/h (3 Bft)
18.03.2013 06:56 2,4 C 0,7 C 87 % 993,9 hPa 0,0 l/m 0 min 0 min 0,0 UV-I 7 W/m 0,0 km/h (0 Bft)
18.03.2013 06:58 2,4 C 0,7 C 87 % 993,9 hPa 0,0 l/m 0 min 0 min 0,0 UV-I 9 W/m 5,1 km/h (1 Bft)
18.03.2013 07:00 2,4 C 0,7 C 87 % 993,9 hPa 0,0 l/m 0 min 0 min 0,0 UV-I 9 W/m 5,1 km/h (1 Bft)
18.03.2013 07:02 2,4 C 0,7 C 87 % 993,9 hPa 0,0 l/m 0 min 0 min 0,0 UV-I 11 W/m 12,9 km/h (3 Bft)
18.03.2013 07:04 2,3 C 0,7 C 87 % 993,9 hPa 0,0 l/m 0 min 0 min 0,0 UV-I 11 W/m 10,3 km/h (2 Bft)
18.03.2013 07:06 2,3 C 0,7 C 87 % 993,9 hPa 0,0 l/m 0 min 0 min 0,0 UV-I 12 W/m 7,7 km/h (2 Bft)
18.03.2013 07:08 2,3 C 0,7 C 87 % 994,0 hPa 0,0 l/m 0 min 0 min 0,0 UV-I 12 W/m 2,6 km/h (1 Bft)
18.03.2013 07:10 2,3 C 0,7 C 87 % 994,0 hPa 0,0 l/m 0 min 0 min 0,0 UV-I 12 W/m 10,3 km/h (2 Bft)
18.03.2013 07:12 2,3 C 0,7 C 87 % 994,0 hPa 0,0 l/m 0 min 0 min 0,0 UV-I 14 W/m 2,6 km/h (1 Bft)
18.03.2013 07:14 2,3 C 0,7 C 87 % 994,0 hPa 0,0 l/m 0 min 0 min 0,0 UV-I 16 W/m 15,4 km/h (3 Bft)
18.03.2013 07:16 2,3 C 0,7 C 87 % 994,0 hPa 0,0 l/m 0 min 0 min 0,0 UV-I 16 W/m 7,7 km/h (2 Bft)
18.03.2013 07:18 2,3 C 0,7 C 87 % 994,0 hPa 0,0 l/m 0 min 0 min 0,0 UV-I 16 W/m 10,3 km/h (2 Bft)
18.03.2013 07:20 2,3 C 0,7 C 87 % 994,0 hPa 0,0 l/m 0 min 0 min 0,0 UV-I 18 W/m 15,4 km/h (3 Bft)
18.03.2013 07:22 2,3 C 0,7 C 87 % 994,0 hPa 0,0 l/m 0 min 0 min 0,0 UV-I 18 W/m 10,3 km/h (2 Bft)
18.03.2013 07:24 2,3 C 0,7 C 87 % 994,0 hPa 0,0 l/m 0 min 0 min 0,0 UV-I 18 W/m 12,9 km/h (3 Bft)
18.03.2013 07:26 2,3 C 0,7 C 87 % 994,0 hPa 0,0 l/m 0 min 0 min 0,0 UV-I 19 W/m 12,9 km/h (3 Bft)
18.03.2013 07:28 2,3 C 0,7 C 87 % 994,0 hPa 0,0 l/m 0 min 0 min 0,0 UV-I 19 W/m 10,3 km/h (2 Bft)
18.03.2013 07:30 2,3 C 0,7 C 87 % 994,1 hPa 0,0 l/m 0 min 0 min 0,0 UV-I 21 W/m 10,3 km/h (2 Bft)
18.03.2013 07:32 2,3 C 0,7 C 87 % 994,0 hPa 0,0 l/m 0 min 0 min 0,0 UV-I 21 W/m 10,3 km/h (2 Bft)
18.03.2013 07:34 2,3 C 0,7 C 87 % 994,0 hPa 0,0 l/m 0 min 0 min 0,0 UV-I 21 W/m 7,7 km/h (2 Bft)
18.03.2013 07:36 2,3 C 0,7 C 87 % 994,1 hPa 0,0 l/m 0 min 0 min 0,0 UV-I 21 W/m 12,9 km/h (3 Bft)
18.03.2013 07:38 2,3 C 0,7 C 87 % 994,1 hPa 0,0 l/m 0 min 0 min 0,0 UV-I 23 W/m 15,4 km/h (3 Bft)
18.03.2013 07:40 2,3 C 0,7 C 87 % 994,1 hPa 0,0 l/m 0 min 0 min 0,0 UV-I 23 W/m 10,3 km/h (2 Bft)
18.03.2013 07:42 2,3 C 1,2 C 87 % 994,1 hPa 0,0 l/m 0 min 0 min 0,0 UV-I 23 W/m 10,3 km/h (2 Bft)
18.03.2013 07:44 2,3 C 1,2 C 87 % 994,1 hPa 0,0 l/m 0 min 0 min 0,0 UV-I 25 W/m 10,3 km/h (2 Bft)
18.03.2013 07:46 2,3 C 1,2 C 88 % 994,1 hPa 0,0 l/m 0 min 0 min 0,0 UV-I 25 W/m 15,4 km/h (3 Bft)
18.03.2013 07:48 2,3 C 1,2 C 88 % 994,1 hPa 0,0 l/m 0 min 0 min 0,0 UV-I 28 W/m 12,9 km/h (3 Bft)
18.03.2013 07:50 2,3 C 1,2 C 88 % 994,0 hPa 0,0 l/m 0 min 0 min 0,0 UV-I 33 W/m 12,9 km/h (3 Bft)
18.03.2013 07:52 2,4 C 1,2 C 88 % 994,1 hPa 0,0 l/m 0 min 0 min 0,0 UV-I 39 W/m 12,9 km/h (3 Bft)
18.03.2013 07:54 2,4 C 1,2 C 88 % 994,1 hPa 0,0 l/m 0 min 0 min 0,0 UV-I 62 W/m 5,1 km/h (1 Bft)
18.03.2013 07:56 2,4 C 1,2 C 88 % 994,1 hPa 0,0 l/m 0 min 0 min 0,0 UV-I 72 W/m 12,9 km/h (3 Bft)
18.03.2013 07:58 2,4 C 1,2 C 88 % 994,1 hPa 0,0 l/m 0 min 0 min 0,0 UV-I 83 W/m 7,7 km/h (2 Bft)
18.03.2013 08:00 2,5 C 1,2 C 88 % 994,1 hPa 0,0 l/m 0 min 0 min 0,0 UV-I 100 W/m 10,3 km/h (2 Bft)
18.03.2013 08:02 2,6 C 1,2 C 88 % 994,1 hPa 0,0 l/m 0 min 0 min 0,0 UV-I 111 W/m 15,4 km/h (3 Bft)
18.03.2013 08:04 2,6 C 1,2 C 88 % 994,1 hPa 0,0 l/m 2 min 0 min 0,0 UV-I 116 W/m 12,9 km/h (3 Bft)
18.03.2013 08:06 2,7 C 1,2 C 88 % 994,1 hPa 0,0 l/m 2 min 0 min 0,0 UV-I 118 W/m 10,3 km/h (2 Bft)
18.03.2013 08:08 2,7 C 1,2 C 88 % 994,2 hPa 0,0 l/m 0 min 0 min 0,0 UV-I 86 W/m 18,0 km/h (3 Bft)
18.03.2013 08:10 2,8 C 1,8 C 87 % 994,2 hPa 0,0 l/m 0 min 0 min 0,0 UV-I 114 W/m 15,4 km/h (3 Bft)
18.03.2013 08:12 2,8 C 1,8 C 87 % 994,2 hPa 0,0 l/m 0 min 0 min 0,0 UV-I 97 W/m 15,4 km/h (3 Bft)
18.03.2013 08:14 2,9 C 2,3 C 87 % 994,2 hPa 0,0 l/m 0 min 0 min 0,0 UV-I 35 W/m 12,9 km/h (3 Bft)
18.03.2013 08:16 2,9 C 2,3 C 87 % 994,3 hPa 0,0 l/m 0 min 0 min 0,0 UV-I 56 W/m 23,2 km/h (4 Bft)
18.03.2013 08:18 2,9 C 2,3 C 87 % 994,3 hPa 0,0 l/m 0 min 0 min 0,0 UV-I 74 W/m 18,0 km/h (3 Bft)
18.03.2013 08:20 3,0 C 2,3 C 87 % 994,2 hPa 0,0 l/m 0 min 0 min 0,0 UV-I 88 W/m 15,4 km/h (3 Bft)
18.03.2013 08:22 3,1 C 2,3 C 87 % 994,3 hPa 0,0 l/m 0 min 0 min 0,0 UV-I 60 W/m 18,0 km/h (3 Bft)
18.03.2013 08:24 3,1 C 2,3 C 86 % 994,3 hPa 0,0 l/m 0 min 0 min 0,0 UV-I 47 W/m 10,3 km/h (2 Bft)
18.03.2013 08:26 3,2 C 2,3 C 86 % 994,2 hPa 0,0 l/m 0 min 0 min 0,0 UV-I 60 W/m 15,4 km/h (3 Bft)
18.03.2013 08:28 3,2 C 2,3 C 86 % 994,3 hPa 0,0 l/m 0 min 0 min 0,0 UV-I 35 W/m 10,3 km/h (2 Bft)
18.03.2013 08:30 3,3 C 2,3 C 86 % 994,3 hPa 0,0 l/m 0 min 0 min 0,0 UV-I 37 W/m 18,0 km/h (3 Bft)
18.03.2013 08:32 3,3 C 2,3 C 86 % 994,3 hPa 0,0 l/m 0 min 0 min 0,0 UV-I 62 W/m 33,5 km/h (5 Bft)
18.03.2013 08:34 3,4 C 2,3 C 85 % 994,3 hPa 0,0 l/m 0 min 0 min 0,0 UV-I 42 W/m 18,0 km/h (3 Bft)
18.03.2013 08:36 3,5 C 2,3 C 85 % 994,2 hPa 0,0 l/m 0 min 0 min 0,0 UV-I 72 W/m 15,4 km/h (3 Bft)
18.03.2013 08:38 3,6 C 2,9 C 85 % 994,3 hPa 0,0 l/m 0 min 0 min 0,0 UV-I 139 W/m 15,4 km/h (3 Bft)
18.03.2013 08:40 3,6 C 2,9 C 85 % 994,3 hPa 0,0 l/m 2 min 0 min 0,0 UV-I 218 W/m 12,9 km/h (3 Bft)
18.03.2013 08:42 3,7 C 2,9 C 85 % 994,3 hPa 0,0 l/m 2 min 0 min 0,0 UV-I 232 W/m 15,4 km/h (3 Bft)
18.03.2013 08:44 3,8 C 2,9 C 84 % 994,3 hPa 0,0 l/m 2 min 0 min 0,0 UV-I 236 W/m 12,9 km/h (3 Bft)
18.03.2013 08:46 3,8 C 2,9 C 84 % 994,3 hPa 0,0 l/m 2 min 0 min 0,0 UV-I 248 W/m 7,7 km/h (2 Bft)
18.03.2013 08:48 3,9 C 2,9 C 84 % 994,2 hPa 0,0 l/m 2 min 0 min 0,0 UV-I 236 W/m 18,0 km/h (3 Bft)
18.03.2013 08:50 3,9 C 2,9 C 84 % 994,2 hPa 0,0 l/m 2 min 0 min 0,0 UV-I 246 W/m 18,0 km/h (3 Bft)
18.03.2013 08:52 4,1 C 2,9 C 84 % 994,2 hPa 0,0 l/m 2 min 0 min 0,0 UV-I 257 W/m 18,0 km/h (3 Bft)
18.03.2013 08:54 4,1 C 3,4 C 83 % 994,2 hPa 0,0 l/m 2 min 0 min 0,0 UV-I 258 W/m 20,6 km/h (4 Bft)
18.03.2013 08:56 4,2 C 3,4 C 83 % 994,1 hPa 0,0 l/m 2 min 0 min 0,0 UV-I 264 W/m 10,3 km/h (2 Bft)
18.03.2013 08:58 4,3 C 3,4 C 82 % 994,1 hPa 0,0 l/m 2 min 0 min 0,0 UV-I 272 W/m 20,6 km/h (4 Bft)
18.03.2013 09:00 4,3 C 3,4 C 82 % 994,2 hPa 0,0 l/m 2 min 0 min 0,0 UV-I 274 W/m 7,7 km/h (2 Bft)
18.03.2013 09:02 4,4 C 3,4 C 82 % 994,1 hPa 0,0 l/m 2 min 0 min 0,0 UV-I 283 W/m 12,9 km/h (3 Bft)
18.03.2013 09:04 4,6 C 3,4 C 82 % 994,1 hPa 0,0 l/m 2 min 0 min 0,0 UV-I 290 W/m 10,3 km/h (2 Bft)
18.03.2013 09:06 4,7 C 3,4 C 81 % 994,0 hPa 0,0 l/m 2 min 0 min 0,0 UV-I 241 W/m 20,6 km/h (4 Bft)
18.03.2013 09:08 4,8 C 3,4 C 80 % 993,9 hPa 0,0 l/m 2 min 0 min 0,0 UV-I 287 W/m 15,4 km/h (3 Bft)
18.03.2013 09:10 4,9 C 3,4 C 80 % 994,0 hPa 0,0 l/m 2 min 0 min 0,0 UV-I 301 W/m 7,7 km/h (2 Bft)
18.03.2013 09:12 5,1 C 3,4 C 80 % 994,0 hPa 0,0 l/m 2 min 0 min 0,0 UV-I 309 W/m 7,7 km/h (2 Bft)
18.03.2013 09:14 5,2 C 4,0 C 78 % 994,0 hPa 0,0 l/m 2 min 0 min 0,0 UV-I 315 W/m 23,2 km/h (4 Bft)
18.03.2013 09:16 5,3 C 4,0 C 78 % 993,9 hPa 0,0 l/m 2 min 0 min 0,0 UV-I 320 W/m 12,9 km/h (3 Bft)
18.03.2013 09:18 5,4 C 4,0 C 78 % 994,0 hPa 0,0 l/m 2 min 0 min 0,0 UV-I 343 W/m 7,7 km/h (2 Bft)
18.03.2013 09:20 5,6 C 4,0 C 78 % 994,0 hPa 0,0 l/m 2 min 0 min 0,0 UV-I 295 W/m 18,0 km/h (3 Bft)
18.03.2013 09:22 5,7 C 4,0 C 77 % 993,9 hPa 0,0 l/m 0 min 0 min 0,0 UV-I 179 W/m 10,3 km/h (2 Bft)
18.03.2013 09:24 5,8 C 4,0 C 76 % 993,9 hPa 0,0 l/m 2 min 0 min 0,0 UV-I 385 W/m 7,7 km/h (2 Bft)
18.03.2013 09:26 5,8 C 4,6 C 76 % 993,9 hPa 0,0 l/m 0 min 0 min 0,0 UV-I 171 W/m 7,7 km/h (2 Bft)
18.03.2013 09:28 5,9 C 4,6 C 77 % 993,9 hPa 0,0 l/m 2 min 0 min 0,0 UV-I 369 W/m 10,3 km/h (2 Bft)
18.03.2013 09:30 6,1 C 4,6 C 76 % 993,8 hPa 0,0 l/m 2 min 0 min 0,0 UV-I 369 W/m 20,6 km/h (4 Bft)
18.03.2013 09:32 6,2 C 4,6 C 75 % 993,9 hPa 0,0 l/m 2 min 0 min 0,0 UV-I 385 W/m 5,1 km/h (1 Bft)
18.03.2013 09:34 6,3 C 5,1 C 75 % 993,8 hPa 0,0 l/m 2 min 0 min 0,0 UV-I 413 W/m 12,9 km/h (3 Bft)
18.03.2013 09:36 6,4 C 5,1 C 75 % 993,8 hPa 0,0 l/m 2 min 0 min 0,0 UV-I 318 W/m 5,1 km/h (1 Bft)
18.03.2013 09:38 6,5 C 5,7 C 75 % 993,8 hPa 0,0 l/m 2 min 0 min 0,0 UV-I 452 W/m 7,7 km/h (2 Bft)
18.03.2013 09:40 6,6 C 5,7 C 75 % 993,9 hPa 0,0 l/m 2 min 0 min 0,0 UV-I 448 W/m 5,1 km/h (1 Bft)
18.03.2013 09:42 6,7 C 6,2 C 75 % 993,7 hPa 0,0 l/m 2 min 0 min 0,0 UV-I 336 W/m 10,3 km/h (2 Bft)
18.03.2013 09:44 6,9 C 6,2 C 73 % 993,7 hPa 0,0 l/m 2 min 0 min 0,0 UV-I 336 W/m 15,4 km/h (3 Bft)
18.03.2013 09:46 7,1 C 6,8 C 73 % 993,7 hPa 0,0 l/m 2 min 0 min 0,0 UV-I 529 W/m 12,9 km/h (3 Bft)
18.03.2013 09:48 7,2 C 6,8 C 71 % 993,7 hPa 0,0 l/m 2 min 0 min 0,0 UV-I 524 W/m 12,9 km/h (3 Bft)
18.03.2013 09:50 7,3 C 7,3 C 70 % 993,7 hPa 0,0 l/m 2 min 0 min 0,0 UV-I 534 W/m 18,0 km/h (3 Bft)
18.03.2013 09:52 7,5 C 6,8 C 69 % 993,6 hPa 0,0 l/m 2 min 0 min 0,0 UV-I 529 W/m 12,9 km/h (3 Bft)
18.03.2013 09:54 7,6 C 6,8 C 69 % 993,6 hPa 0,0 l/m 2 min 0 min 0,0 UV-I 397 W/m 12,9 km/h (3 Bft)
18.03.2013 09:56 7,7 C 7,3 C 69 % 993,6 hPa 0,0 l/m 2 min 0 min 0,0 UV-I 269 W/m 2,6 km/h (1 Bft)
18.03.2013 09:58 7,8 C 7,3 C 68 % 993,6 hPa 0,0 l/m 2 min 0 min 0,5 UV-I 387 W/m 15,4 km/h (3 Bft)
18.03.2013 10:00 7,9 C 6,8 C 67 % 993,6 hPa 0,0 l/m 2 min 0 min 0,0 UV-I 359 W/m 7,7 km/h (2 Bft)
18.03.2013 10:02 8,1 C 6,8 C 67 % 993,5 hPa 0,0 l/m 2 min 0 min 0,0 UV-I 508 W/m 2,6 km/h (1 Bft)
18.03.2013 10:04 8,1 C 7,3 C 68 % 993,5 hPa 0,0 l/m 2 min 0 min 0,0 UV-I 512 W/m 5,1 km/h (1 Bft)
18.03.2013 10:06 8,2 C 7,3 C 67 % 993,5 hPa 0,0 l/m 2 min 0 min 0,0 UV-I 512 W/m 7,7 km/h (2 Bft)
18.03.2013 10:08 8,3 C 7,3 C 66 % 993,5 hPa 0,0 l/m 2 min 0 min 0,5 UV-I 338 W/m 10,3 km/h (2 Bft)
18.03.2013 10:10 8,3 C 6,8 C 66 % 993,5 hPa 0,0 l/m 0 min 0 min 0,5 UV-I 225 W/m 20,6 km/h (4 Bft)
18.03.2013 10:12 8,3 C 7,3 C 66 % 993,5 hPa 0,0 l/m 2 min 0 min 0,5 UV-I 381 W/m 7,7 km/h (2 Bft)
18.03.2013 10:14 8,4 C 7,3 C 66 % 993,5 hPa 0,0 l/m 2 min 0 min 0,5 UV-I 452 W/m 15,4 km/h (3 Bft)
18.03.2013 10:16 8,5 C 6,8 C 67 % 993,6 hPa 0,0 l/m 2 min 0 min 0,0 UV-I 313 W/m 12,9 km/h (3 Bft)
18.03.2013 10:18 8,6 C 6,8 C 65 % 993,5 hPa 0,0 l/m 2 min 0 min 0,6 UV-I 455 W/m 20,6 km/h (4 Bft)
18.03.2013 10:20 8,6 C 7,3 C 65 % 993,4 hPa 0,0 l/m 2 min 0 min 0,5 UV-I 455 W/m 18,0 km/h (3 Bft)
18.03.2013 10:22 8,6 C 7,3 C 64 % 993,5 hPa 0,0 l/m 2 min 0 min 0,6 UV-I 461 W/m 5,1 km/h (1 Bft)
18.03.2013 10:24 8,7 C 7,3 C 66 % 993,4 hPa 0,0 l/m 2 min 0 min 0,6 UV-I 464 W/m 7,7 km/h (2 Bft)
18.03.2013 10:26 8,7 C 7,3 C 65 % 993,5 hPa 0,0 l/m 2 min 0 min 0,6 UV-I 471 W/m 10,3 km/h (2 Bft)
18.03.2013 10:28 8,8 C 7,3 C 65 % 993,4 hPa 0,0 l/m 2 min 0 min 0,6 UV-I 471 W/m 7,7 km/h (2 Bft)
18.03.2013 10:30 8,8 C 7,3 C 64 % 993,4 hPa 0,0 l/m 2 min 0 min 0,7 UV-I 476 W/m 15,4 km/h (3 Bft)
18.03.2013 10:32 8,8 C 7,3 C 64 % 993,4 hPa 0,0 l/m 2 min 0 min 0,7 UV-I 480 W/m 0,0 km/h (0 Bft)
18.03.2013 10:34 8,9 C 7,3 C 65 % 993,4 hPa 0,0 l/m 2 min 0 min 0,7 UV-I 483 W/m 12,9 km/h (3 Bft)
18.03.2013 10:36 9,1 C 7,3 C 65 % 993,3 hPa 0,0 l/m 2 min 0 min 0,7 UV-I 487 W/m 10,3 km/h (2 Bft)
18.03.2013 10:38 9,2 C 7,9 C 65 % 993,3 hPa 0,0 l/m 2 min 0 min 0,8 UV-I 489 W/m 10,3 km/h (2 Bft)
18.03.2013 10:40 9,3 C 7,9 C 65 % 993,3 hPa 0,0 l/m 2 min 0 min 0,8 UV-I 496 W/m 0,0 km/h (0 Bft)
18.03.2013 10:42 9,3 C 7,9 C 65 % 993,2 hPa 0,0 l/m 2 min 0 min 0,8 UV-I 497 W/m 5,1 km/h (1 Bft)
18.03.2013 10:44 9,4 C 8,4 C 64 % 993,2 hPa 0,0 l/m 2 min 0 min 0,8 UV-I 501 W/m 18,0 km/h (3 Bft)
18.03.2013 10:46 9,6 C 8,4 C 63 % 993,3 hPa 0,0 l/m 2 min 0 min 0,9 UV-I 506 W/m 20,6 km/h (4 Bft)
18.03.2013 10:48 9,7 C 8,4 C 63 % 993,2 hPa 0,0 l/m 2 min 0 min 0,9 UV-I 510 W/m 7,7 km/h (2 Bft)
18.03.2013 10:50 9,7 C 7,9 C 63 % 993,2 hPa 0,0 l/m 2 min 0 min 0,9 UV-I 513 W/m 15,4 km/h (3 Bft)
18.03.2013 10:52 9,7 C 8,4 C 63 % 993,2 hPa 0,0 l/m 2 min 0 min 0,9 UV-I 517 W/m 15,4 km/h (3 Bft)
18.03.2013 10:54 9,8 C 8,4 C 63 % 993,2 hPa 0,0 l/m 2 min 0 min 0,9 UV-I 520 W/m 10,3 km/h (2 Bft)
18.03.2013 10:56 9,9 C 8,4 C 64 % 993,2 hPa 0,0 l/m 2 min 0 min 0,9 UV-I 522 W/m 10,3 km/h (2 Bft)
18.03.2013 10:58 10,0 C 8,4 C 62 % 993,1 hPa 0,0 l/m 2 min 0 min 0,9 UV-I 524 W/m 10,3 km/h (2 Bft)
18.03.2013 11:00 10,1 C 8,4 C 62 % 993,1 hPa 0,0 l/m 2 min 0 min 1,0 UV-I 529 W/m 5,1 km/h (1 Bft)
18.03.2013 11:02 10,2 C 9,0 C 63 % 993,1 hPa 0,0 l/m 2 min 0 min 1,0 UV-I 531 W/m 7,7 km/h (2 Bft)
18.03.2013 11:04 10,2 C 9,0 C 63 % 993,0 hPa 0,0 l/m 2 min 0 min 1,0 UV-I 534 W/m 12,9 km/h (3 Bft)
18.03.2013 11:06 10,3 C 9,0 C 63 % 993,0 hPa 0,0 l/m 2 min 0 min 1,0 UV-I 536 W/m 2,6 km/h (1 Bft)
18.03.2013 11:08 10,4 C 9,0 C 62 % 993,0 hPa 0,0 l/m 2 min 0 min 1,0 UV-I 538 W/m 5,1 km/h (1 Bft)
18.03.2013 11:10 10,6 C 9,0 C 62 % 993,0 hPa 0,0 l/m 2 min 0 min 1,1 UV-I 541 W/m 0,0 km/h (0 Bft)
18.03.2013 11:12 10,6 C 9,0 C 61 % 993,0 hPa 0,0 l/m 2 min 0 min 1,1 UV-I 548 W/m 2,6 km/h (1 Bft)
18.03.2013 11:14 10,7 C 9,0 C 61 % 992,9 hPa 0,0 l/m 2 min 0 min 1,1 UV-I 548 W/m 5,1 km/h (1 Bft)
18.03.2013 11:16 10,8 C 9,0 C 58 % 993,1 hPa 0,0 l/m 2 min 0 min 1,1 UV-I 554 W/m 15,4 km/h (3 Bft)
18.03.2013 11:18 10,8 C 9,0 C 57 % 993,0 hPa 0,0 l/m 2 min 0 min 1,1 UV-I 555 W/m 10,3 km/h (2 Bft)
18.03.2013 11:20 10,8 C 9,0 C 58 % 992,9 hPa 0,0 l/m 2 min 0 min 1,2 UV-I 559 W/m 15,4 km/h (3 Bft)
18.03.2013 11:22 10,8 C 9,0 C 57 % 992,9 hPa 0,0 l/m 2 min 0 min 1,2 UV-I 561 W/m 12,9 km/h (3 Bft)
18.03.2013 11:24 10,8 C 9,0 C 58 % 992,9 hPa 0,0 l/m 2 min 0 min 1,2 UV-I 563 W/m 10,3 km/h (2 Bft)
18.03.2013 11:26 10,8 C 9,0 C 57 % 992,9 hPa 0,0 l/m 2 min 0 min 1,2 UV-I 566 W/m 15,4 km/h (3 Bft)
18.03.2013 11:28 10,8 C 9,0 C 57 % 992,9 hPa 0,0 l/m 2 min 0 min 1,2 UV-I 568 W/m 7,7 km/h (2 Bft)
18.03.2013 11:30 10,8 C 9,0 C 57 % 992,9 hPa 0,0 l/m 2 min 0 min 1,2 UV-I 573 W/m 12,9 km/h (3 Bft)
18.03.2013 11:32 10,7 C 9,0 C 57 % 992,8 hPa 0,0 l/m 2 min 0 min 1,3 UV-I 575 W/m 10,3 km/h (2 Bft)
18.03.2013 11:34 10,7 C 9,0 C 56 % 992,8 hPa 0,0 l/m 2 min 0 min 1,3 UV-I 577 W/m 12,9 km/h (3 Bft)
18.03.2013 11:36 10,7 C 9,0 C 58 % 992,9 hPa 0,0 l/m 2 min 0 min 1,3 UV-I 577 W/m 7,7 km/h (2 Bft)
18.03.2013 11:38 10,7 C 9,0 C 57 % 992,9 hPa 0,0 l/m 2 min 0 min 1,3 UV-I 578 W/m 15,4 km/h (3 Bft)
18.03.2013 11:40 10,7 C 9,0 C 57 % 992,9 hPa 0,0 l/m 2 min 0 min 1,3 UV-I 580 W/m 5,1 km/h (1 Bft)
18.03.2013 11:42 10,7 C 9,6 C 56 % 992,9 hPa 0,0 l/m 2 min 0 min 1,3 UV-I 580 W/m 12,9 km/h (3 Bft)
18.03.2013 11:44 10,7 C 9,0 C 56 % 992,8 hPa 0,0 l/m 2 min 0 min 1,3 UV-I 584 W/m 10,3 km/h (2 Bft)
18.03.2013 11:46 10,7 C 9,6 C 56 % 992,8 hPa 0,0 l/m 2 min 0 min 1,3 UV-I 589 W/m 10,3 km/h (2 Bft)
18.03.2013 11:48 10,8 C 9,6 C 56 % 992,7 hPa 0,0 l/m 2 min 0 min 1,3 UV-I 592 W/m 15,4 km/h (3 Bft)
18.03.2013 11:50 10,8 C 9,6 C 54 % 992,6 hPa 0,0 l/m 2 min 0 min 1,3 UV-I 591 W/m 12,9 km/h (3 Bft)
18.03.2013 11:52 10,8 C 9,6 C 55 % 992,6 hPa 0,0 l/m 2 min 0 min 1,3 UV-I 591 W/m 18,0 km/h (3 Bft)
18.03.2013 11:54 10,8 C 9,6 C 55 % 992,6 hPa 0,0 l/m 2 min 0 min 1,4 UV-I 605 W/m 18,0 km/h (3 Bft)
18.03.2013 11:56 10,9 C 9,6 C 57 % 992,7 hPa 0,0 l/m 2 min 0 min 1,4 UV-I 605 W/m 7,7 km/h (2 Bft)
18.03.2013 11:58 10,9 C 9,6 C 57 % 992,6 hPa 0,0 l/m 2 min 0 min 1,0 UV-I 615 W/m 7,7 km/h (2 Bft)
18.03.2013 12:00 11,0 C 9,6 C 57 % 992,8 hPa 0,0 l/m 2 min 0 min 1,1 UV-I 355 W/m 12,9 km/h (3 Bft)
18.03.2013 12:02 11,0 C 9,6 C 57 % 992,6 hPa 0,0 l/m 2 min 0 min 1,5 UV-I 638 W/m 5,1 km/h (1 Bft)
18.03.2013 12:04 11,0 C 9,6 C 56 % 992,5 hPa 0,0 l/m 2 min 0 min 1,4 UV-I 619 W/m 15,4 km/h (3 Bft)
18.03.2013 12:06 11,0 C 9,6 C 57 % 992,5 hPa 0,0 l/m 2 min 0 min 1,4 UV-I 608 W/m 7,7 km/h (2 Bft)
18.03.2013 12:08 11,1 C 9,6 C 59 % 992,5 hPa 0,0 l/m 2 min 0 min 1,4 UV-I 613 W/m 10,3 km/h (2 Bft)
18.03.2013 12:10 11,2 C 10,1 C 59 % 992,4 hPa 0,0 l/m 2 min 0 min 1,4 UV-I 606 W/m 7,7 km/h (2 Bft)
18.03.2013 12:12 11,2 C 10,1 C 58 % 992,6 hPa 0,0 l/m 2 min 0 min 1,5 UV-I 615 W/m 10,3 km/h (2 Bft)
18.03.2013 12:14 11,3 C 10,1 C 57 % 992,5 hPa 0,0 l/m 2 min 0 min 1,5 UV-I 628 W/m 7,7 km/h (2 Bft)
18.03.2013 12:16 11,3 C 10,1 C 57 % 992,5 hPa 0,0 l/m 2 min 0 min 1,5 UV-I 649 W/m 7,7 km/h (2 Bft)
18.03.2013 12:18 11,3 C 9,6 C 57 % 992,5 hPa 0,0 l/m 2 min 0 min 0,5 UV-I 459 W/m 12,9 km/h (3 Bft)
18.03.2013 12:20 11,3 C 9,6 C 56 % 992,4 hPa 0,0 l/m 0 min 0 min 0,8 UV-I 113 W/m 10,3 km/h (2 Bft)
18.03.2013 12:22 11,3 C 9,6 C 56 % 992,5 hPa 0,0 l/m 0 min 0 min 0,0 UV-I 113 W/m 0,0 km/h (0 Bft)
18.03.2013 12:24 11,3 C 9,6 C 56 % 992,4 hPa 0,0 l/m 0 min 0 min 1,2 UV-I 123 W/m 15,4 km/h (3 Bft)
18.03.2013 12:26 11,3 C 9,6 C 54 % 992,4 hPa 0,0 l/m 0 min 0 min 1,6 UV-I 123 W/m 23,2 km/h (4 Bft)
18.03.2013 12:28 11,3 C 9,6 C 55 % 992,4 hPa 0,0 l/m 2 min 0 min 1,6 UV-I 652 W/m 15,4 km/h (3 Bft)
18.03.2013 12:30 11,3 C 10,1 C 54 % 992,5 hPa 0,0 l/m 2 min 0 min 1,5 UV-I 643 W/m 23,2 km/h (4 Bft)
18.03.2013 12:32 11,3 C 10,1 C 53 % 992,4 hPa 0,0 l/m 2 min 0 min 1,5 UV-I 640 W/m 12,9 km/h (3 Bft)
18.03.2013 12:34 11,4 C 10,1 C 53 % 992,4 hPa 0,0 l/m 2 min 0 min 1,5 UV-I 636 W/m 5,1 km/h (1 Bft)
18.03.2013 12:36 11,4 C 10,7 C 52 % 992,3 hPa 0,0 l/m 2 min 0 min 1,5 UV-I 635 W/m 18,0 km/h (3 Bft)
18.03.2013 12:38 11,4 C 10,7 C 52 % 992,4 hPa 0,0 l/m 2 min 0 min 1,5 UV-I 633 W/m 23,2 km/h (4 Bft)
18.03.2013 12:40 11,5 C 10,1 C 51 % 992,4 hPa 0,0 l/m 2 min 0 min 1,5 UV-I 633 W/m 15,4 km/h (3 Bft)
18.03.2013 12:42 11,4 C 10,1 C 51 % 992,4 hPa 0,0 l/m 2 min 0 min 1,5 UV-I 633 W/m 10,3 km/h (2 Bft)
18.03.2013 12:44 11,5 C 10,1 C 53 % 992,4 hPa 0,0 l/m 2 min 0 min 1,6 UV-I 645 W/m 7,7 km/h (2 Bft)
18.03.2013 12:46 11,6 C 10,7 C 54 % 992,4 hPa 0,0 l/m 2 min 0 min 1,6 UV-I 643 W/m 2,6 km/h (1 Bft)
18.03.2013 12:48 11,7 C 10,7 C 54 % 992,4 hPa 0,0 l/m 2 min 0 min 1,5 UV-I 636 W/m 15,4 km/h (3 Bft)
18.03.2013 12:50 11,8 C 10,7 C 52 % 992,3 hPa 0,0 l/m 2 min 0 min 1,5 UV-I 638 W/m 10,3 km/h (2 Bft)
18.03.2013 12:52 11,9 C 10,7 C 52 % 992,3 hPa 0,0 l/m 2 min 0 min 1,5 UV-I 619 W/m 10,3 km/h (2 Bft)
18.03.2013 12:54 12,0 C 10,7 C 51 % 992,3 hPa 0,0 l/m 2 min 0 min 0,6 UV-I 517 W/m 18,0 km/h (3 Bft)
18.03.2013 12:56 12,1 C 10,1 C 51 % 992,3 hPa 0,0 l/m 0 min 0 min 0,5 UV-I 223 W/m 18,0 km/h (3 Bft)
18.03.2013 12:58 12,0 C 9,6 C 50 % 992,4 hPa 0,0 l/m 0 min 0 min 1,2 UV-I 183 W/m 10,3 km/h (2 Bft)
18.03.2013 13:00 12,0 C 9,6 C 50 % 992,4 hPa 0,0 l/m 2 min 0 min 1,5 UV-I 647 W/m 5,1 km/h (1 Bft)
18.03.2013 13:02 12,0 C 10,1 C 50 % 992,3 hPa 0,0 l/m 2 min 0 min 1,5 UV-I 649 W/m 7,7 km/h (2 Bft)
18.03.2013 13:04 12,0 C 10,1 C 51 % 992,3 hPa 0,0 l/m 2 min 0 min 1,5 UV-I 643 W/m 2,6 km/h (1 Bft)
18.03.2013 13:06 12,1 C 10,1 C 52 % 992,3 hPa 0,0 l/m 2 min 0 min 1,5 UV-I 649 W/m 10,3 km/h (2 Bft)
18.03.2013 13:08 12,1 C 10,7 C 51 % 992,3 hPa 0,0 l/m 2 min 0 min 1,5 UV-I 656 W/m 10,3 km/h (2 Bft)
18.03.2013 13:10 12,1 C 10,1 C 50 % 992,4 hPa 0,0 l/m 2 min 0 min 0,5 UV-I 656 W/m 20,6 km/h (4 Bft)
18.03.2013 13:12 11,9 C 9,6 C 50 % 992,3 hPa 0,0 l/m 0 min 0 min 0,0 UV-I 90 W/m 10,3 km/h (2 Bft)
18.03.2013 13:14 11,8 C 9,0 C 50 % 992,3 hPa 0,0 l/m 0 min 0 min 0,0 UV-I 90 W/m 7,7 km/h (2 Bft)
18.03.2013 13:16 11,7 C 9,0 C 51 % 992,3 hPa 0,0 l/m 0 min 0 min 0,0 UV-I 105 W/m 7,7 km/h (2 Bft)
18.03.2013 13:18 11,6 C 9,0 C 50 % 992,2 hPa 0,0 l/m 0 min 0 min 0,0 UV-I 120 W/m 10,3 km/h (2 Bft)
18.03.2013 13:20 11,6 C 8,4 C 52 % 992,3 hPa 0,0 l/m 0 min 0 min 0,0 UV-I 125 W/m 0,0 km/h (0 Bft)
18.03.2013 13:22 11,5 C 9,0 C 52 % 992,3 hPa 0,0 l/m 0 min 0 min 0,0 UV-I 163 W/m 2,6 km/h (1 Bft)
18.03.2013 13:24 11,4 C 9,0 C 52 % 992,2 hPa 0,0 l/m 0 min 0 min 0,0 UV-I 211 W/m 5,1 km/h (1 Bft)
18.03.2013 13:26 11,4 C 9,0 C 52 % 992,3 hPa 0,0 l/m 0 min 0 min 0,5 UV-I 200 W/m 12,9 km/h (3 Bft)
18.03.2013 13:28 11,4 C 10,1 C 55 % 992,2 hPa 0,0 l/m 2 min 0 min 1,4 UV-I 759 W/m 10,3 km/h (2 Bft)
18.03.2013 13:30 11,4 C 10,7 C 55 % 992,2 hPa 0,0 l/m 2 min 0 min 0,8 UV-I 696 W/m 12,9 km/h (3 Bft)
18.03.2013 13:32 11,6 C 10,7 C 55 % 992,2 hPa 0,0 l/m 2 min 0 min 0,6 UV-I 696 W/m 12,9 km/h (3 Bft)
18.03.2013 13:34 11,6 C 11,2 C 54 % 992,2 hPa 0,0 l/m 0 min 0 min 1,5 UV-I 313 W/m 15,4 km/h (3 Bft)
18.03.2013 13:36 11,7 C 11,2 C 54 % 992,1 hPa 0,0 l/m 2 min 0 min 1,3 UV-I 701 W/m 15,4 km/h (3 Bft)
18.03.2013 13:38 11,8 C 11,2 C 54 % 992,1 hPa 0,0 l/m 2 min 0 min 0,5 UV-I 701 W/m 15,4 km/h (3 Bft)
18.03.2013 13:40 11,8 C 11,2 C 54 % 992,1 hPa 0,0 l/m 0 min 0 min 0,5 UV-I 214 W/m 15,4 km/h (3 Bft)
18.03.2013 13:42 11,8 C 10,7 C 53 % 992,1 hPa 0,0 l/m 0 min 0 min 0,0 UV-I 209 W/m 15,4 km/h (3 Bft)
18.03.2013 13:44 11,8 C 10,7 C 53 % 992,1 hPa 0,0 l/m 0 min 0 min 0,9 UV-I 209 W/m 18,0 km/h (3 Bft)
18.03.2013 13:46 11,8 C 10,7 C 54 % 992,1 hPa 0,0 l/m 0 min 0 min 0,0 UV-I 221 W/m 18,0 km/h (3 Bft)
18.03.2013 13:48 11,8 C 10,7 C 53 % 992,1 hPa 0,0 l/m 0 min 0 min 0,0 UV-I 227 W/m 12,9 km/h (3 Bft)
18.03.2013 13:50 11,7 C 10,1 C 53 % 992,1 hPa 0,0 l/m 0 min 0 min 0,0 UV-I 199 W/m 7,7 km/h (2 Bft)
18.03.2013 13:52 11,7 C 10,1 C 53 % 992,1 hPa 0,0 l/m 0 min 0 min 0,0 UV-I 185 W/m 0,0 km/h (0 Bft)
18.03.2013 13:54 11,7 C 10,1 C 54 % 992,1 hPa 0,0 l/m 0 min 0 min 0,0 UV-I 169 W/m 7,7 km/h (2 Bft)
18.03.2013 13:56 11,6 C 10,1 C 53 % 992,1 hPa 0,0 l/m 0 min 0 min 0,0 UV-I 174 W/m 10,3 km/h (2 Bft)
18.03.2013 13:58 11,6 C 10,1 C 54 % 992,0 hPa 0,0 l/m 0 min 0 min 0,0 UV-I 197 W/m 0,0 km/h (0 Bft)
18.03.2013 14:00 11,6 C 10,1 C 54 % 992,0 hPa 0,0 l/m 0 min 0 min 0,0 UV-I 200 W/m 0,0 km/h (0 Bft)
18.03.2013 14:02 11,5 C 10,7 C 54 % 992,0 hPa 0,0 l/m 0 min 0 min 1,0 UV-I 260 W/m 7,7 km/h (2 Bft)
18.03.2013 14:04 11,5 C 10,7 C 54 % 992,0 hPa 0,0 l/m 0 min 0 min 1,0 UV-I 260 W/m 12,9 km/h (3 Bft)
18.03.2013 14:06 11,6 C 10,7 C 54 % 991,9 hPa 0,0 l/m 0 min 0 min 0,0 UV-I 183 W/m 10,3 km/h (2 Bft)
18.03.2013 14:08 11,6 C 10,7 C 53 % 991,9 hPa 0,0 l/m 0 min 0 min 0,0 UV-I 176 W/m 10,3 km/h (2 Bft)
18.03.2013 14:10 11,6 C 10,7 C 52 % 992,0 hPa 0,0 l/m 0 min 0 min 0,0 UV-I 186 W/m 15,4 km/h (3 Bft)
18.03.2013 14:12 11,5 C 10,7 C 53 % 991,9 hPa 0,0 l/m 0 min 0 min 0,8 UV-I 253 W/m 12,9 km/h (3 Bft)
18.03.2013 14:14 11,6 C 11,2 C 55 % 991,8 hPa 0,0 l/m 2 min 0 min 1,0 UV-I 710 W/m 2,6 km/h (1 Bft)
18.03.2013 14:16 11,7 C 11,2 C 54 % 991,8 hPa 0,0 l/m 2 min 0 min 1,1 UV-I 710 W/m 15,4 km/h (3 Bft)
18.03.2013 14:18 11,7 C 11,2 C 52 % 991,9 hPa 0,0 l/m 2 min 0 min 0,6 UV-I 325 W/m 10,3 km/h (2 Bft)
18.03.2013 14:20 11,8 C 11,8 C 54 % 991,8 hPa 0,0 l/m 2 min 0 min 1,1 UV-I 686 W/m 7,7 km/h (2 Bft)
18.03.2013 14:22 11,9 C 11,8 C 55 % 991,9 hPa 0,0 l/m 0 min 0 min 0,0 UV-I 165 W/m 15,4 km/h (3 Bft)
18.03.2013 14:24 12,1 C 11,8 C 53 % 991,9 hPa 0,0 l/m 0 min 0 min 0,0 UV-I 165 W/m 10,3 km/h (2 Bft)
18.03.2013 14:26 12,1 C 11,2 C 51 % 991,9 hPa 0,0 l/m 0 min 0 min 0,0 UV-I 185 W/m 18,0 km/h (3 Bft)
18.03.2013 14:28 12,1 C 11,2 C 51 % 991,9 hPa 0,0 l/m 0 min 0 min 0,0 UV-I 185 W/m 12,9 km/h (3 Bft)
18.03.2013 14:30 12,1 C 10,7 C 50 % 991,9 hPa 0,0 l/m 0 min 0 min 0,0 UV-I 172 W/m 12,9 km/h (3 Bft)
18.03.2013 14:32 12,0 C 10,7 C 50 % 991,9 hPa 0,0 l/m 0 min 0 min 0,0 UV-I 181 W/m 7,7 km/h (2 Bft)
18.03.2013 14:34 11,9 C 10,7 C 51 % 991,9 hPa 0,0 l/m 0 min 0 min 0,0 UV-I 181 W/m 15,4 km/h (3 Bft)
18.03.2013 14:36 11,8 C 10,7 C 53 % 991,9 hPa 0,0 l/m 0 min 0 min 0,0 UV-I 174 W/m 12,9 km/h (3 Bft)
18.03.2013 14:38 11,8 C 10,1 C 53 % 991,9 hPa 0,0 l/m 0 min 0 min 0,0 UV-I 151 W/m 12,9 km/h (3 Bft)
18.03.2013 14:40 11,7 C 10,1 C 54 % 991,8 hPa 0,0 l/m 0 min 0 min 0,0 UV-I 142 W/m 7,7 km/h (2 Bft)
18.03.2013 14:42 11,6 C 10,1 C 54 % 991,8 hPa 0,0 l/m 0 min 0 min 0,0 UV-I 127 W/m 12,9 km/h (3 Bft)
18.03.2013 14:44 11,6 C 10,1 C 55 % 991,8 hPa 0,0 l/m 0 min 0 min 0,0 UV-I 95 W/m 10,3 km/h (2 Bft)
18.03.2013 14:46 11,5 C 9,6 C 55 % 991,8 hPa 0,0 l/m 0 min 0 min 0,0 UV-I 90 W/m 20,6 km/h (4 Bft)
18.03.2013 14:48 11,3 C 9,6 C 54 % 991,8 hPa 0,0 l/m 0 min 0 min 0,0 UV-I 95 W/m 18,0 km/h (3 Bft)
18.03.2013 14:50 11,3 C 9,0 C 55 % 991,8 hPa 0,0 l/m 0 min 0 min 0,0 UV-I 109 W/m 12,9 km/h (3 Bft)
18.03.2013 14:52 11,2 C 9,0 C 55 % 991,8 hPa 0,0 l/m 0 min 0 min 0,0 UV-I 107 W/m 10,3 km/h (2 Bft)
18.03.2013 14:54 11,1 C 9,0 C 56 % 991,7 hPa 0,0 l/m 0 min 0 min 0,0 UV-I 100 W/m 2,6 km/h (1 Bft)
18.03.2013 14:56 11,0 C 9,0 C 56 % 991,7 hPa 0,0 l/m 0 min 0 min 0,0 UV-I 90 W/m 10,3 km/h (2 Bft)
18.03.2013 14:58 10,9 C 9,0 C 57 % 991,8 hPa 0,0 l/m 0 min 0 min 0,0 UV-I 98 W/m 15,4 km/h (3 Bft)
18.03.2013 15:00 10,8 C 9,0 C 56 % 991,8 hPa 0,0 l/m 0 min 0 min 0,0 UV-I 105 W/m 20,6 km/h (4 Bft)
18.03.2013 15:02 10,7 C 9,0 C 57 % 991,8 hPa 0,0 l/m 0 min 0 min 0,0 UV-I 116 W/m 12,9 km/h (3 Bft)
18.03.2013 15:04 10,7 C 9,0 C 57 % 991,9 hPa 0,0 l/m 0 min 0 min 0,0 UV-I 114 W/m 12,9 km/h (3 Bft)
18.03.2013 15:06 10,6 C 9,0 C 57 % 991,8 hPa 0,0 l/m 0 min 0 min 0,0 UV-I 113 W/m 12,9 km/h (3 Bft)
18.03.2013 15:08 10,6 C 9,0 C 58 % 991,9 hPa 0,0 l/m 0 min 0 min 0,0 UV-I 113 W/m 10,3 km/h (2 Bft)
18.03.2013 15:10 10,5 C 9,0 C 57 % 991,9 hPa 0,0 l/m 0 min 0 min 0,0 UV-I 113 W/m 15,4 km/h (3 Bft)
18.03.2013 15:12 10,4 C 8,4 C 57 % 991,9 hPa 0,0 l/m 0 min 0 min 0,0 UV-I 118 W/m 15,4 km/h (3 Bft)
18.03.2013 15:14 10,4 C 9,0 C 58 % 991,9 hPa 0,0 l/m 0 min 0 min 0,0 UV-I 132 W/m 15,4 km/h (3 Bft)
18.03.2013 15:16 10,3 C 9,0 C 57 % 991,8 hPa 0,0 l/m 0 min 0 min 0,0 UV-I 121 W/m 18,0 km/h (3 Bft)
18.03.2013 15:18 10,3 C 8,4 C 58 % 991,9 hPa 0,0 l/m 0 min 0 min 0,0 UV-I 116 W/m 10,3 km/h (2 Bft)
18.03.2013 15:20 10,2 C 8,4 C 57 % 991,9 hPa 0,0 l/m 0 min 0 min 0,0 UV-I 111 W/m 10,3 km/h (2 Bft)
18.03.2013 15:22 10,2 C 8,4 C 57 % 991,9 hPa 0,0 l/m 0 min 0 min 0,0 UV-I 111 W/m 12,9 km/h (3 Bft)
18.03.2013 15:24 10,2 C 8,4 C 58 % 991,9 hPa 0,0 l/m 0 min 0 min 0,0 UV-I 107 W/m 7,7 km/h (2 Bft)
18.03.2013 15:26 10,2 C 8,4 C 58 % 991,8 hPa 0,0 l/m 0 min 0 min 0,0 UV-I 104 W/m 7,7 km/h (2 Bft)
18.03.2013 15:28 10,2 C 8,4 C 57 % 991,9 hPa 0,0 l/m 0 min 0 min 0,0 UV-I 104 W/m 7,7 km/h (2 Bft)
18.03.2013 15:30 10,1 C 8,4 C 57 % 991,9 hPa 0,0 l/m 0 min 0 min 0,0 UV-I 102 W/m 12,9 km/h (3 Bft)
18.03.2013 15:32 10,1 C 8,4 C 57 % 991,8 hPa 0,0 l/m 0 min 0 min 0,0 UV-I 104 W/m 2,6 km/h (1 Bft)
18.03.2013 15:34 10,1 C 8,4 C 58 % 991,8 hPa 0,0 l/m 0 min 0 min 0,0 UV-I 102 W/m 5,1 km/h (1 Bft)
18.03.2013 15:36 10,1 C 8,4 C 58 % 991,8 hPa 0,0 l/m 0 min 0 min 0,0 UV-I 105 W/m 10,3 km/h (2 Bft)
18.03.2013 15:38 10,1 C 8,4 C 59 % 991,8 hPa 0,0 l/m 0 min 0 min 0,0 UV-I 107 W/m 5,1 km/h (1 Bft)
18.03.2013 15:40 10,1 C 8,4 C 58 % 991,8 hPa 0,0 l/m 0 min 0 min 0,0 UV-I 114 W/m 5,1 km/h (1 Bft)
18.03.2013 15:42 10,1 C 8,4 C 58 % 991,9 hPa 0,0 l/m 0 min 0 min 0,0 UV-I 114 W/m 12,9 km/h (3 Bft)
18.03.2013 15:44 10,1 C 8,4 C 57 % 991,9 hPa 0,0 l/m 0 min 0 min 0,0 UV-I 114 W/m 18,0 km/h (3 Bft)
18.03.2013 15:46 10,1 C 8,4 C 57 % 991,9 hPa 0,0 l/m 0 min 0 min 0,0 UV-I 118 W/m 7,7 km/h (2 Bft)
18.03.2013 15:48 10,1 C 8,4 C 56 % 991,9 hPa 0,0 l/m 0 min 0 min 0,0 UV-I 127 W/m 7,7 km/h (2 Bft)
18.03.2013 15:50 10,1 C 9,0 C 56 % 991,9 hPa 0,0 l/m 0 min 0 min 0,0 UV-I 134 W/m 7,7 km/h (2 Bft)
18.03.2013 15:52 10,1 C 9,0 C 57 % 991,9 hPa 0,0 l/m 0 min 0 min 0,0 UV-I 155 W/m 10,3 km/h (2 Bft)
18.03.2013 15:54 10,2 C 9,6 C 57 % 991,9 hPa 0,0 l/m 0 min 0 min 0,0 UV-I 146 W/m 7,7 km/h (2 Bft)
18.03.2013 15:56 10,2 C 9,6 C 57 % 991,9 hPa 0,0 l/m 0 min 0 min 0,0 UV-I 148 W/m 15,4 km/h (3 Bft)
18.03.2013 15:58 10,2 C 9,6 C 57 % 991,9 hPa 0,0 l/m 0 min 0 min 0,0 UV-I 151 W/m 7,7 km/h (2 Bft)
18.03.2013 16:00 10,2 C 9,6 C 56 % 991,8 hPa 0,0 l/m 0 min 0 min 0,0 UV-I 185 W/m 10,3 km/h (2 Bft)
18.03.2013 16:02 10,3 C 10,1 C 55 % 991,8 hPa 0,0 l/m 2 min 0 min 0,0 UV-I 267 W/m 5,1 km/h (1 Bft)
18.03.2013 16:04 10,3 C 10,7 C 57 % 991,8 hPa 0,0 l/m 2 min 0 min 0,0 UV-I 355 W/m 10,3 km/h (2 Bft)
18.03.2013 16:06 10,4 C 11,8 C 57 % 991,8 hPa 0,0 l/m 2 min 0 min 0,0 UV-I 446 W/m 10,3 km/h (2 Bft)
18.03.2013 16:08 10,5 C 11,8 C 56 % 991,8 hPa 0,0 l/m 2 min 0 min 0,0 UV-I 313 W/m 15,4 km/h (3 Bft)
18.03.2013 16:10 10,6 C 11,2 C 56 % 991,9 hPa 0,0 l/m 0 min 0 min 0,0 UV-I 174 W/m 18,0 km/h (3 Bft)
18.03.2013 16:12 10,7 C 10,7 C 57 % 991,9 hPa 0,0 l/m 0 min 0 min 0,0 UV-I 160 W/m 10,3 km/h (2 Bft)
18.03.2013 16:14 10,7 C 10,7 C 57 % 991,8 hPa 0,0 l/m 0 min 0 min 0,0 UV-I 156 W/m 10,3 km/h (2 Bft)
18.03.2013 16:16 10,8 C 10,1 C 57 % 991,8 hPa 0,0 l/m 0 min 0 min 0,0 UV-I 151 W/m 5,1 km/h (1 Bft)
18.03.2013 16:18 10,8 C 10,1 C 56 % 991,8 hPa 0,0 l/m 0 min 0 min 0,0 UV-I 160 W/m 15,4 km/h (3 Bft)
18.03.2013 16:20 10,8 C 10,1 C 55 % 991,8 hPa 0,0 l/m 2 min 0 min 0,0 UV-I 239 W/m 12,9 km/h (3 Bft)
18.03.2013 16:22 10,9 C 9,6 C 55 % 991,7 hPa 0,0 l/m 0 min 0 min 0,0 UV-I 125 W/m 12,9 km/h (3 Bft)
18.03.2013 16:24 10,9 C 9,6 C 55 % 991,7 hPa 0,0 l/m 0 min 0 min 0,0 UV-I 114 W/m 12,9 km/h (3 Bft)
18.03.2013 16:26 10,9 C 9,6 C 55 % 991,7 hPa 0,0 l/m 0 min 0 min 0,0 UV-I 116 W/m 15,4 km/h (3 Bft)
18.03.2013 16:28 10,8 C 9,6 C 55 % 991,8 hPa 0,0 l/m 0 min 0 min 0,0 UV-I 107 W/m 12,9 km/h (3 Bft)
18.03.2013 16:30 10,8 C 9,6 C 55 % 991,9 hPa 0,0 l/m 0 min 0 min 0,0 UV-I 100 W/m 7,7 km/h (2 Bft)
18.03.2013 16:32 10,8 C 9,6 C 55 % 991,8 hPa 0,0 l/m 0 min 0 min 0,0 UV-I 102 W/m 12,9 km/h (3 Bft)
18.03.2013 16:34 10,8 C 9,0 C 56 % 991,8 hPa 0,0 l/m 0 min 0 min 0,0 UV-I 102 W/m 12,9 km/h (3 Bft)
18.03.2013 16:36 10,8 C 9,0 C 56 % 991,8 hPa 0,0 l/m 0 min 0 min 0,0 UV-I 98 W/m 5,1 km/h (1 Bft)
18.03.2013 16:38 10,8 C 9,0 C 57 % 991,8 hPa 0,0 l/m 0 min 0 min 0,0 UV-I 95 W/m 12,9 km/h (3 Bft)
18.03.2013 16:40 10,8 C 9,0 C 57 % 991,9 hPa 0,0 l/m 0 min 0 min 0,0 UV-I 91 W/m 12,9 km/h (3 Bft)
18.03.2013 16:42 10,7 C 9,0 C 56 % 991,9 hPa 0,0 l/m 0 min 0 min 0,0 UV-I 88 W/m 15,4 km/h (3 Bft)
18.03.2013 16:44 10,7 C 9,0 C 55 % 991,8 hPa 0,0 l/m 0 min 0 min 0,0 UV-I 86 W/m 20,6 km/h (4 Bft)
18.03.2013 16:46 10,6 C 9,0 C 55 % 991,9 hPa 0,0 l/m 0 min 0 min 0,0 UV-I 88 W/m 15,4 km/h (3 Bft)
18.03.2013 16:48 10,6 C 9,0 C 56 % 991,8 hPa 0,0 l/m 0 min 0 min 0,0 UV-I 88 W/m 15,4 km/h (3 Bft)
18.03.2013 16:50 10,5 C 9,0 C 55 % 991,8 hPa 0,0 l/m 0 min 0 min 0,0 UV-I 90 W/m 12,9 km/h (3 Bft)
18.03.2013 16:52 10,4 C 9,0 C 55 % 991,8 hPa 0,0 l/m 0 min 0 min 0,0 UV-I 90 W/m 15,4 km/h (3 Bft)
18.03.2013 16:54 10,4 C 9,0 C 55 % 991,8 hPa 0,0 l/m 0 min 0 min 0,0 UV-I 90 W/m 12,9 km/h (3 Bft)
18.03.2013 16:56 10,4 C 9,0 C 56 % 991,8 hPa 0,0 l/m 0 min 0 min 0,0 UV-I 88 W/m 10,3 km/h (2 Bft)
18.03.2013 16:58 10,3 C 9,0 C 57 % 991,8 hPa 0,0 l/m 0 min 0 min 0,0 UV-I 86 W/m 10,3 km/h (2 Bft)
18.03.2013 17:00 10,3 C 9,0 C 57 % 991,8 hPa 0,0 l/m 0 min 0 min 0,0 UV-I 83 W/m 10,3 km/h (2 Bft)
18.03.2013 17:02 10,3 C 9,0 C 58 % 991,8 hPa 0,0 l/m 0 min 0 min 0,0 UV-I 79 W/m 7,7 km/h (2 Bft)
18.03.2013 17:04 10,3 C 9,0 C 58 % 991,9 hPa 0,0 l/m 0 min 0 min 0,0 UV-I 76 W/m 7,7 km/h (2 Bft)
18.03.2013 17:06 10,3 C 9,0 C 58 % 991,9 hPa 0,0 l/m 0 min 0 min 0,0 UV-I 76 W/m 18,0 km/h (3 Bft)
18.03.2013 17:08 10,2 C 8,4 C 58 % 991,9 hPa 0,0 l/m 0 min 0 min 0,0 UV-I 100 W/m 12,9 km/h (3 Bft)
18.03.2013 17:10 10,2 C 8,4 C 59 % 991,9 hPa 0,0 l/m 0 min 0 min 0,0 UV-I 125 W/m 5,1 km/h (1 Bft)
18.03.2013 17:12 10,2 C 8,4 C 59 % 991,8 hPa 0,0 l/m 0 min 0 min 0,0 UV-I 84 W/m 15,4 km/h (3 Bft)
18.03.2013 17:14 10,2 C 8,4 C 60 % 991,9 hPa 0,0 l/m 0 min 0 min 0,0 UV-I 97 W/m 15,4 km/h (3 Bft)
18.03.2013 17:16 10,2 C 8,4 C 60 % 991,9 hPa 0,0 l/m 0 min 0 min 0,0 UV-I 86 W/m 18,0 km/h (3 Bft)
18.03.2013 17:18 10,1 C 8,4 C 60 % 991,9 hPa 0,0 l/m 0 min 0 min 0,0 UV-I 86 W/m 23,2 km/h (4 Bft)
18.03.2013 17:20 10,1 C 8,4 C 60 % 992,0 hPa 0,0 l/m 0 min 0 min 0,0 UV-I 86 W/m 25,7 km/h (4 Bft)
18.03.2013 17:22 9,9 C 8,4 C 60 % 992,0 hPa 0,0 l/m 0 min 0 min 0,0 UV-I 86 W/m 18,0 km/h (3 Bft)
18.03.2013 17:24 9,9 C 8,4 C 60 % 992,0 hPa 0,0 l/m 0 min 0 min 0,0 UV-I 88 W/m 28,3 km/h (4 Bft)
18.03.2013 17:26 9,8 C 8,4 C 60 % 992,0 hPa 0,0 l/m 2 min 0 min 0,0 UV-I 156 W/m 23,2 km/h (4 Bft)
18.03.2013 17:28 9,8 C 8,4 C 61 % 992,0 hPa 0,0 l/m 2 min 0 min 0,0 UV-I 146 W/m 7,7 km/h (2 Bft)
18.03.2013 17:30 9,8 C 8,4 C 61 % 992,0 hPa 0,0 l/m 2 min 0 min 0,0 UV-I 121 W/m 12,9 km/h (3 Bft)
18.03.2013 17:32 9,8 C 8,4 C 61 % 992,0 hPa 0,0 l/m 2 min 0 min 0,0 UV-I 141 W/m 12,9 km/h (3 Bft)
18.03.2013 17:34 9,8 C 8,4 C 61 % 992,0 hPa 0,0 l/m 2 min 0 min 0,0 UV-I 125 W/m 20,6 km/h (4 Bft)
18.03.2013 17:36 9,8 C 8,4 C 61 % 992,0 hPa 0,0 l/m 2 min 0 min 0,0 UV-I 148 W/m 12,9 km/h (3 Bft)
18.03.2013 17:38 9,7 C 8,4 C 62 % 992,0 hPa 0,0 l/m 2 min 0 min 0,0 UV-I 130 W/m 25,7 km/h (4 Bft)
18.03.2013 17:40 9,7 C 8,4 C 62 % 992,0 hPa 0,0 l/m 2 min 0 min 0,0 UV-I 109 W/m 12,9 km/h (3 Bft)
18.03.2013 17:42 9,7 C 8,4 C 62 % 992,0 hPa 0,0 l/m 0 min 0 min 0,0 UV-I 79 W/m 15,4 km/h (3 Bft)
18.03.2013 17:44 9,7 C 8,4 C 62 % 992,0 hPa 0,0 l/m 0 min 0 min 0,0 UV-I 81 W/m 15,4 km/h (3 Bft)
18.03.2013 17:46 9,7 C 8,4 C 62 % 992,0 hPa 0,0 l/m 2 min 0 min 0,0 UV-I 90 W/m 12,9 km/h (3 Bft)
18.03.2013 17:48 9,7 C 7,9 C 62 % 992,0 hPa 0,0 l/m 2 min 0 min 0,0 UV-I 76 W/m 10,3 km/h (2 Bft)
18.03.2013 17:50 9,7 C 7,9 C 62 % 992,0 hPa 0,0 l/m 0 min 0 min 0,0 UV-I 69 W/m 5,1 km/h (1 Bft)
18.03.2013 17:52 9,7 C 7,9 C 62 % 992,0 hPa 0,0 l/m 0 min 0 min 0,0 UV-I 60 W/m 2,6 km/h (1 Bft)
18.03.2013 17:54 9,7 C 7,9 C 62 % 992,1 hPa 0,0 l/m 0 min 0 min 0,0 UV-I 60 W/m 15,4 km/h (3 Bft)
18.03.2013 17:56 9,7 C 7,9 C 63 % 992,0 hPa 0,0 l/m 0 min 0 min 0,0 UV-I 56 W/m 10,3 km/h (2 Bft)
18.03.2013 17:58 9,6 C 7,3 C 62 % 992,1 hPa 0,0 l/m 0 min 0 min 0,0 UV-I 58 W/m 15,4 km/h (3 Bft)
18.03.2013 18:00 9,6 C 7,3 C 62 % 992,1 hPa 0,0 l/m 2 min 0 min 0,0 UV-I 65 W/m 15,4 km/h (3 Bft)
18.03.2013 18:02 9,6 C 7,3 C 62 % 992,0 hPa 0,0 l/m 2 min 0 min 0,0 UV-I 69 W/m 12,9 km/h (3 Bft)
18.03.2013 18:04 9,6 C 7,3 C 62 % 992,1 hPa 0,0 l/m 2 min 0 min 0,0 UV-I 72 W/m 10,3 km/h (2 Bft)
18.03.2013 18:06 9,5 C 7,3 C 62 % 992,1 hPa 0,0 l/m 2 min 0 min 0,0 UV-I 62 W/m 12,9 km/h (3 Bft)
18.03.2013 18:08 9,5 C 7,3 C 62 % 992,1 hPa 0,0 l/m 0 min 0 min 0,0 UV-I 42 W/m 10,3 km/h (2 Bft)
18.03.2013 18:10 9,4 C 7,3 C 62 % 992,1 hPa 0,0 l/m 0 min 0 min 0,0 UV-I 40 W/m 0,0 km/h (0 Bft)
18.03.2013 18:12 9,4 C 7,3 C 62 % 992,1 hPa 0,0 l/m 0 min 0 min 0,0 UV-I 39 W/m 2,6 km/h (1 Bft)
18.03.2013 18:14 9,4 C 6,8 C 62 % 992,1 hPa 0,0 l/m 0 min 0 min 0,0 UV-I 33 W/m 7,7 km/h (2 Bft)
18.03.2013 18:16 9,4 C 6,8 C 62 % 992,1 hPa 0,0 l/m 0 min 0 min 0,0 UV-I 32 W/m 7,7 km/h (2 Bft)
18.03.2013 18:18 9,3 C 6,8 C 62 % 992,1 hPa 0,0 l/m 2 min 0 min 0,0 UV-I 32 W/m 0,0 km/h (0 Bft)
18.03.2013 18:20 9,3 C 6,8 C 62 % 992,2 hPa 0,0 l/m 0 min 0 min 0,0 UV-I 28 W/m 2,6 km/h (1 Bft)
18.03.2013 18:22 9,3 C 6,8 C 62 % 992,2 hPa 0,0 l/m 2 min 0 min 0,0 UV-I 26 W/m 7,7 km/h (2 Bft)
18.03.2013 18:24 9,3 C 6,8 C 62 % 992,2 hPa 0,0 l/m 2 min 0 min 0,0 UV-I 23 W/m 2,6 km/h (1 Bft)
18.03.2013 18:26 9,2 C 6,2 C 62 % 992,2 hPa 0,0 l/m 0 min 0 min 0,0 UV-I 18 W/m 2,6 km/h (1 Bft)
18.03.2013 18:28 9,2 C 6,2 C 62 % 992,3 hPa 0,0 l/m 0 min 0 min 0,0 UV-I 16 W/m 5,1 km/h (1 Bft)
18.03.2013 18:30 9,2 C 6,2 C 62 % 992,3 hPa 0,0 l/m 0 min 0 min 0,0 UV-I 14 W/m 5,1 km/h (1 Bft)
18.03.2013 18:32 9,1 C 6,2 C 62 % 992,3 hPa 0,0 l/m 0 min 0 min 0,0 UV-I 11 W/m 0,0 km/h (0 Bft)
18.03.2013 18:34 9,1 C 6,2 C 62 % 992,3 hPa 0,0 l/m 0 min 0 min 0,0 UV-I 9 W/m 0,0 km/h (0 Bft)
18.03.2013 18:36 9,0 C 6,2 C 62 % 992,4 hPa 0,0 l/m 0 min 0 min 0,0 UV-I 7 W/m 2,6 km/h (1 Bft)
18.03.2013 18:38 8,9 C 6,2 C 63 % 992,3 hPa 0,0 l/m 0 min 0 min 0,0 UV-I 5 W/m 2,6 km/h (1 Bft)
18.03.2013 18:40 8,9 C 6,2 C 63 % 992,3 hPa 0,0 l/m 0 min 0 min 0,0 UV-I 0 W/m 0,0 km/h (0 Bft)
18.03.2013 18:42 8,9 C 5,7 C 63 % 992,4 hPa 0,0 l/m 0 min 0 min 0,0 UV-I 0 W/m 2,6 km/h (1 Bft)
18.03.2013 18:44 8,8 C 5,7 C 63 % 992,4 hPa 0,0 l/m 0 min 0 min 0,0 UV-I 0 W/m 7,7 km/h (2 Bft)
18.03.2013 18:46 8,8 C 5,7 C 64 % 992,4 hPa 0,0 l/m 0 min 0 min 0,0 UV-I 0 W/m 2,6 km/h (1 Bft)
18.03.2013 18:48 8,7 C 5,7 C 64 % 992,4 hPa 0,0 l/m 0 min 0 min 0,0 UV-I 0 W/m 0,0 km/h (0 Bft)
18.03.2013 18:50 8,7 C 5,7 C 64 % 992,5 hPa 0,0 l/m 0 min 0 min 0,0 UV-I 0 W/m 0,0 km/h (0 Bft)
18.03.2013 18:52 8,7 C 5,7 C 64 % 992,5 hPa 0,0 l/m 0 min 0 min 0,0 UV-I 0 W/m 0,0 km/h (0 Bft)
18.03.2013 18:54 8,6 C 5,1 C 64 % 992,5 hPa 0,0 l/m 0 min 0 min 0,0 UV-I 0 W/m 0,0 km/h (0 Bft)
18.03.2013 18:56 8,6 C 5,1 C 65 % 992,4 hPa 0,0 l/m 0 min 0 min 0,0 UV-I 0 W/m 0,0 km/h (0 Bft)
18.03.2013 18:58 8,6 C 5,1 C 65 % 992,5 hPa 0,0 l/m 0 min 0 min 0,0 UV-I 0 W/m 0,0 km/h (0 Bft)
18.03.2013 19:00 8,5 C 5,1 C 65 % 992,4 hPa 0,0 l/m 0 min 0 min 0,0 UV-I 0 W/m 0,0 km/h (0 Bft)
18.03.2013 19:02 8,4 C 5,1 C 65 % 992,5 hPa 0,0 l/m 0 min 0 min 0,0 UV-I 0 W/m 2,6 km/h (1 Bft)
18.03.2013 19:04 8,4 C 5,1 C 66 % 992,5 hPa 0,0 l/m 0 min 0 min 0,0 UV-I 0 W/m 0,0 km/h (0 Bft)
18.03.2013 19:06 8,3 C 5,1 C 66 % 992,5 hPa 0,0 l/m 0 min 0 min 0,0 UV-I 0 W/m 2,6 km/h (1 Bft)
18.03.2013 19:08 8,3 C 5,1 C 66 % 992,5 hPa 0,0 l/m 0 min 0 min 0,0 UV-I 0 W/m 0,0 km/h (0 Bft)
18.03.2013 19:10 8,2 C 5,1 C 67 % 992,5 hPa 0,0 l/m 0 min 0 min 0,0 UV-I 0 W/m 0,0 km/h (0 Bft)
18.03.2013 19:12 8,2 C 5,1 C 67 % 992,6 hPa 0,0 l/m 0 min 0 min 0,0 UV-I 0 W/m 0,0 km/h (0 Bft)
18.03.2013 19:14 8,1 C 5,1 C 67 % 992,5 hPa 0,0 l/m 0 min 0 min 0,0 UV-I 0 W/m 0,0 km/h (0 Bft)
18.03.2013 19:16 8,1 C 5,1 C 67 % 992,6 hPa 0,0 l/m 0 min 0 min 0,0 UV-I 0 W/m 2,6 km/h (1 Bft)
18.03.2013 19:18 8,0 C 4,6 C 67 % 992,5 hPa 0,0 l/m 0 min 0 min 0,0 UV-I 0 W/m 0,0 km/h (0 Bft)
18.03.2013 19:20 8,0 C 4,6 C 67 % 992,6 hPa 0,0 l/m 0 min 0 min 0,0 UV-I 0 W/m 0,0 km/h (0 Bft)
18.03.2013 19:22 7,9 C 4,6 C 67 % 992,6 hPa 0,0 l/m 0 min 0 min 0,0 UV-I 0 W/m 0,0 km/h (0 Bft)
18.03.2013 19:24 7,9 C 4,6 C 67 % 992,6 hPa 0,0 l/m 0 min 0 min 0,0 UV-I 0 W/m 0,0 km/h (0 Bft)
18.03.2013 19:26 7,8 C 4,6 C 67 % 992,7 hPa 0,0 l/m 0 min 0 min 0,0 UV-I 0 W/m 0,0 km/h (0 Bft)
18.03.2013 19:28 7,8 C 4,6 C 67 % 992,7 hPa 0,0 l/m 0 min 0 min 0,0 UV-I 0 W/m 0,0 km/h (0 Bft)
18.03.2013 19:30 7,8 C 4,0 C 67 % 992,6 hPa 0,0 l/m 0 min 0 min 0,0 UV-I 0 W/m 0,0 km/h (0 Bft)
18.03.2013 19:32 7,7 C 4,0 C 67 % 992,7 hPa 0,0 l/m 0 min 0 min 0,0 UV-I 0 W/m 0,0 km/h (0 Bft)
18.03.2013 19:34 7,7 C 4,0 C 67 % 992,7 hPa 0,0 l/m 0 min 0 min 0,0 UV-I 0 W/m 0,0 km/h (0 Bft)
18.03.2013 19:36 7,6 C 4,0 C 68 % 992,8 hPa 0,0 l/m 0 min 0 min 0,0 UV-I 0 W/m 0,0 km/h (0 Bft)
18.03.2013 19:38 7,6 C 4,0 C 68 % 992,7 hPa 0,0 l/m 0 min 0 min 0,0 UV-I 0 W/m 0,0 km/h (0 Bft)
18.03.2013 19:40 7,5 C 3,4 C 68 % 992,8 hPa 0,0 l/m 0 min 0 min 0,0 UV-I 0 W/m 0,0 km/h (0 Bft)
18.03.2013 19:42 7,4 C 3,4 C 68 % 992,8 hPa 0,0 l/m 0 min 0 min 0,0 UV-I 0 W/m 0,0 km/h (0 Bft)
18.03.2013 19:44 7,4 C 3,4 C 68 % 992,8 hPa 0,0 l/m 0 min 0 min 0,0 UV-I 0 W/m 0,0 km/h (0 Bft)
18.03.2013 19:46 7,3 C 3,4 C 69 % 992,8 hPa 0,0 l/m 0 min 0 min 0,0 UV-I 0 W/m 0,0 km/h (0 Bft)
18.03.2013 19:48 7,2 C 3,4 C 69 % 992,8 hPa 0,0 l/m 0 min 0 min 0,0 UV-I 0 W/m 0,0 km/h (0 Bft)
18.03.2013 19:50 7,2 C 3,4 C 69 % 992,8 hPa 0,0 l/m 0 min 0 min 0,0 UV-I 0 W/m 0,0 km/h (0 Bft)
18.03.2013 19:52 7,1 C 2,9 C 69 % 992,8 hPa 0,0 l/m 0 min 0 min 0,0 UV-I 0 W/m 0,0 km/h (0 Bft)
18.03.2013 19:54 7,1 C 2,9 C 69 % 992,8 hPa 0,0 l/m 0 min 0 min 0,0 UV-I 0 W/m 0,0 km/h (0 Bft)
18.03.2013 19:56 7,0 C 2,9 C 69 % 992,8 hPa 0,0 l/m 0 min 0 min 0,0 UV-I 0 W/m 0,0 km/h (0 Bft)
18.03.2013 19:58 6,9 C 2,9 C 69 % 992,8 hPa 0,0 l/m 0 min 0 min 0,0 UV-I 0 W/m 0,0 km/h (0 Bft)
18.03.2013 20:00 6,9 C 2,9 C 70 % 992,8 hPa 0,0 l/m 0 min 0 min 0,0 UV-I 0 W/m 0,0 km/h (0 Bft)
18.03.2013 20:02 6,8 C 2,9 C 70 % 992,8 hPa 0,0 l/m 0 min 0 min 0,0 UV-I 0 W/m 0,0 km/h (0 Bft)
18.03.2013 20:04 6,8 C 2,9 C 71 % 992,8 hPa 0,0 l/m 0 min 0 min 0,0 UV-I 0 W/m 0,0 km/h (0 Bft)
18.03.2013 20:06 6,7 C 2,9 C 71 % 992,8 hPa 0,0 l/m 0 min 0 min 0,0 UV-I 0 W/m 0,0 km/h (0 Bft)
18.03.2013 20:08 6,7 C 2,9 C 70 % 992,8 hPa 0,0 l/m 0 min 0 min 0,0 UV-I 0 W/m 0,0 km/h (0 Bft)
18.03.2013 20:10 6,6 C 2,9 C 71 % 992,8 hPa 0,0 l/m 0 min 0 min 0,0 UV-I 0 W/m 0,0 km/h (0 Bft)
18.03.2013 20:12 6,5 C 2,3 C 71 % 992,9 hPa 0,0 l/m 0 min 0 min 0,0 UV-I 0 W/m 0,0 km/h (0 Bft)
18.03.2013 20:14 6,4 C 2,3 C 71 % 992,8 hPa 0,0 l/m 0 min 0 min 0,0 UV-I 0 W/m 0,0 km/h (0 Bft)
18.03.2013 20:16 6,4 C 2,3 C 71 % 992,8 hPa 0,0 l/m 0 min 0 min 0,0 UV-I 0 W/m 0,0 km/h (0 Bft)
18.03.2013 20:18 6,3 C 2,3 C 71 % 992,8 hPa 0,0 l/m 0 min 0 min 0,0 UV-I 0 W/m 0,0 km/h (0 Bft)
18.03.2013 20:20 6,2 C 2,3 C 71 % 992,8 hPa 0,0 l/m 0 min 0 min 0,0 UV-I 0 W/m 0,0 km/h (0 Bft)
18.03.2013 20:22 6,2 C 2,3 C 71 % 992,8 hPa 0,0 l/m 0 min 0 min 0,0 UV-I 0 W/m 0,0 km/h (0 Bft)
18.03.2013 20:24 6,1 C 2,3 C 72 % 992,8 hPa 0,0 l/m 0 min 0 min 0,0 UV-I 0 W/m 0,0 km/h (0 Bft)
18.03.2013 20:26 6,1 C 2,3 C 72 % 992,8 hPa 0,0 l/m 0 min 0 min 0,0 UV-I 0 W/m 0,0 km/h (0 Bft)
18.03.2013 20:28 6,0 C 2,3 C 71 % 992,8 hPa 0,0 l/m 0 min 0 min 0,0 UV-I 0 W/m 0,0 km/h (0 Bft)
18.03.2013 20:30 5,9 C 2,3 C 72 % 992,8 hPa 0,0 l/m 0 min 0 min 0,0 UV-I 0 W/m 0,0 km/h (0 Bft)
18.03.2013 20:32 5,9 C 2,3 C 72 % 992,8 hPa 0,0 l/m 0 min 0 min 0,0 UV-I 0 W/m 0,0 km/h (0 Bft)
18.03.2013 20:34 5,8 C 2,3 C 72 % 992,8 hPa 0,0 l/m 0 min 0 min 0,0 UV-I 0 W/m 0,0 km/h (0 Bft)
18.03.2013 20:36 5,8 C 2,3 C 72 % 992,9 hPa 0,0 l/m 0 min 0 min 0,0 UV-I 0 W/m 0,0 km/h (0 Bft)
18.03.2013 20:38 5,7 C 2,3 C 72 % 992,8 hPa 0,0 l/m 0 min 0 min 0,0 UV-I 0 W/m 0,0 km/h (0 Bft)
18.03.2013 20:40 5,7 C 1,8 C 72 % 992,9 hPa 0,0 l/m 0 min 0 min 0,0 UV-I 0 W/m 0,0 km/h (0 Bft)
18.03.2013 20:42 5,6 C 1,8 C 72 % 992,9 hPa 0,0 l/m 0 min 0 min 0,0 UV-I 0 W/m 0,0 km/h (0 Bft)
18.03.2013 20:44 5,6 C 1,8 C 72 % 993,0 hPa 0,0 l/m 0 min 0 min 0,0 UV-I 0 W/m 0,0 km/h (0 Bft)
18.03.2013 20:46 5,5 C 1,8 C 73 % 993,0 hPa 0,0 l/m 0 min 0 min 0,0 UV-I 0 W/m 0,0 km/h (0 Bft)
18.03.2013 20:48 5,4 C 1,8 C 73 % 993,0 hPa 0,0 l/m 0 min 0 min 0,0 UV-I 0 W/m 0,0 km/h (0 Bft)
18.03.2013 20:50 5,3 C 1,8 C 73 % 993,1 hPa 0,0 l/m 0 min 0 min 0,0 UV-I 0 W/m 0,0 km/h (0 Bft)
18.03.2013 20:52 5,3 C 1,8 C 73 % 993,0 hPa 0,0 l/m 0 min 0 min 0,0 UV-I 0 W/m 0,0 km/h (0 Bft)
18.03.2013 20:54 5,2 C 1,8 C 73 % 992,9 hPa 0,0 l/m 0 min 0 min 0,0 UV-I 0 W/m 0,0 km/h (0 Bft)
18.03.2013 20:56 5,2 C 1,8 C 74 % 993,0 hPa 0,0 l/m 0 min 0 min 0,0 UV-I 0 W/m 0,0 km/h (0 Bft)
18.03.2013 20:58 5,1 C 1,8 C 73 % 993,0 hPa 0,0 l/m 0 min 0 min 0,0 UV-I 0 W/m 0,0 km/h (0 Bft)
18.03.2013 21:00 5,1 C 1,8 C 73 % 993,0 hPa 0,0 l/m 0 min 0 min 0,0 UV-I 0 W/m 0,0 km/h (0 Bft)
18.03.2013 21:02 5,0 C 1,8 C 74 % 993,1 hPa 0,0 l/m 0 min 0 min 0,0 UV-I 0 W/m 0,0 km/h (0 Bft)
18.03.2013 21:04 5,0 C 1,8 C 74 % 993,1 hPa 0,0 l/m 0 min 0 min 0,0 UV-I 0 W/m 0,0 km/h (0 Bft)
18.03.2013 21:06 4,9 C 1,8 C 74 % 993,0 hPa 0,0 l/m 0 min 0 min 0,0 UV-I 0 W/m 0,0 km/h (0 Bft)
18.03.2013 21:08 4,9 C 1,2 C 74 % 993,0 hPa 0,0 l/m 0 min 0 min 0,0 UV-I 0 W/m 0,0 km/h (0 Bft)
18.03.2013 21:10 4,8 C 1,2 C 75 % 993,0 hPa 0,0 l/m 0 min 0 min 0,0 UV-I 0 W/m 0,0 km/h (0 Bft)
18.03.2013 21:12 4,8 C 1,2 C 75 % 993,0 hPa 0,0 l/m 0 min 0 min 0,0 UV-I 0 W/m 0,0 km/h (0 Bft)
18.03.2013 21:14 4,7 C 1,2 C 75 % 993,0 hPa 0,0 l/m 0 min 0 min 0,0 UV-I 0 W/m 0,0 km/h (0 Bft)
18.03.2013 21:16 4,7 C 1,2 C 75 % 993,0 hPa 0,0 l/m 0 min 0 min 0,0 UV-I 0 W/m 0,0 km/h (0 Bft)
18.03.2013 21:18 4,6 C 1,2 C 76 % 993,0 hPa 0,0 l/m 0 min 0 min 0,0 UV-I 0 W/m 0,0 km/h (0 Bft)
18.03.2013 21:20 4,6 C 1,2 C 76 % 993,1 hPa 0,0 l/m 0 min 0 min 0,0 UV-I 0 W/m 0,0 km/h (0 Bft)
18.03.2013 21:22 4,6 C 1,2 C 76 % 993,1 hPa 0,0 l/m 0 min 0 min 0,0 UV-I 0 W/m 0,0 km/h (0 Bft)
18.03.2013 21:24 4,5 C 1,2 C 77 % 993,1 hPa 0,0 l/m 0 min 0 min 0,0 UV-I 0 W/m 0,0 km/h (0 Bft)
18.03.2013 21:26 4,4 C 1,2 C 77 % 993,1 hPa 0,0 l/m 0 min 0 min 0,0 UV-I 0 W/m 0,0 km/h (0 Bft)
18.03.2013 21:28 4,4 C 1,2 C 77 % 993,2 hPa 0,0 l/m 0 min 0 min 0,0 UV-I 0 W/m 0,0 km/h (0 Bft)
18.03.2013 21:30 4,4 C 1,2 C 77 % 993,1 hPa 0,0 l/m 0 min 0 min 0,0 UV-I 0 W/m 0,0 km/h (0 Bft)
18.03.2013 21:32 4,3 C 1,2 C 78 % 993,1 hPa 0,0 l/m 0 min 0 min 0,0 UV-I 0 W/m 0,0 km/h (0 Bft)
18.03.2013 21:34 4,3 C 1,2 C 78 % 993,1 hPa 0,0 l/m 0 min 0 min 0,0 UV-I 0 W/m 0,0 km/h (0 Bft)
18.03.2013 21:36 4,3 C 1,2 C 78 % 993,1 hPa 0,0 l/m 0 min 0 min 0,0 UV-I 0 W/m 0,0 km/h (0 Bft)
18.03.2013 21:38 4,2 C 1,2 C 78 % 993,1 hPa 0,0 l/m 0 min 0 min 0,0 UV-I 0 W/m 0,0 km/h (0 Bft)
18.03.2013 21:40 4,2 C 1,2 C 78 % 993,2 hPa 0,0 l/m 0 min 0 min 0,0 UV-I 0 W/m 0,0 km/h (0 Bft)
18.03.2013 21:42 4,2 C 1,2 C 78 % 993,2 hPa 0,0 l/m 0 min 0 min 0,0 UV-I 0 W/m 0,0 km/h (0 Bft)
18.03.2013 21:44 4,1 C 1,2 C 78 % 993,1 hPa 0,0 l/m 0 min 0 min 0,0 UV-I 0 W/m 0,0 km/h (0 Bft)
18.03.2013 21:46 4,1 C 1,2 C 78 % 993,1 hPa 0,0 l/m 0 min 0 min 0,0 UV-I 0 W/m 0,0 km/h (0 Bft)
18.03.2013 21:48 4,1 C 1,2 C 78 % 993,1 hPa 0,0 l/m 0 min 0 min 0,0 UV-I 0 W/m 0,0 km/h (0 Bft)
18.03.2013 21:50 4,0 C 1,2 C 78 % 993,1 hPa 0,0 l/m 0 min 0 min 0,0 UV-I 0 W/m 0,0 km/h (0 Bft)
18.03.2013 21:52 3,9 C 1,2 C 78 % 993,1 hPa 0,0 l/m 0 min 0 min 0,0 UV-I 0 W/m 0,0 km/h (0 Bft)
18.03.2013 21:54 3,9 C 1,2 C 79 % 993,2 hPa 0,0 l/m 0 min 0 min 0,0 UV-I 0 W/m 0,0 km/h (0 Bft)
18.03.2013 21:56 3,9 C 1,2 C 79 % 993,2 hPa 0,0 l/m 0 min 0 min 0,0 UV-I 0 W/m 0,0 km/h (0 Bft)
18.03.2013 21:58 3,8 C 1,2 C 79 % 993,2 hPa 0,0 l/m 0 min 0 min 0,0 UV-I 0 W/m 0,0 km/h (0 Bft)
18.03.2013 22:00 3,8 C 0,7 C 79 % 993,2 hPa 0,0 l/m 0 min 0 min 0,0 UV-I 0 W/m 0,0 km/h (0 Bft)
18.03.2013 22:02 3,8 C 0,7 C 79 % 993,2 hPa 0,0 l/m 0 min 0 min 0,0 UV-I 0 W/m 0,0 km/h (0 Bft)
18.03.2013 22:04 3,8 C 0,7 C 79 % 993,2 hPa 0,0 l/m 0 min 0 min 0,0 UV-I 0 W/m 0,0 km/h (0 Bft)
18.03.2013 22:06 3,7 C 0,7 C 80 % 993,2 hPa 0,0 l/m 0 min 0 min 0,0 UV-I 0 W/m 0,0 km/h (0 Bft)
18.03.2013 22:08 3,7 C 0,7 C 80 % 993,2 hPa 0,0 l/m 0 min 0 min 0,0 UV-I 0 W/m 0,0 km/h (0 Bft)
18.03.2013 22:10 3,7 C 0,7 C 80 % 993,2 hPa 0,0 l/m 0 min 0 min 0,0 UV-I 0 W/m 0,0 km/h (0 Bft)
18.03.2013 22:12 3,7 C 0,7 C 80 % 993,2 hPa 0,0 l/m 0 min 0 min 0,0 UV-I 0 W/m 0,0 km/h (0 Bft)
18.03.2013 22:14 3,6 C 0,7 C 80 % 993,2 hPa 0,0 l/m 0 min 0 min 0,0 UV-I 0 W/m 0,0 km/h (0 Bft)
18.03.2013 22:16 3,6 C 0,7 C 81 % 993,2 hPa 0,0 l/m 0 min 0 min 0,0 UV-I 0 W/m 0,0 km/h (0 Bft)
18.03.2013 22:18 3,6 C 0,7 C 81 % 993,2 hPa 0,0 l/m 0 min 0 min 0,0 UV-I 0 W/m 0,0 km/h (0 Bft)
18.03.2013 22:20 3,5 C 0,7 C 81 % 993,2 hPa 0,0 l/m 0 min 0 min 0,0 UV-I 0 W/m 0,0 km/h (0 Bft)
18.03.2013 22:22 3,5 C 0,7 C 80 % 993,2 hPa 0,0 l/m 0 min 0 min 0,0 UV-I 0 W/m 0,0 km/h (0 Bft)
18.03.2013 22:24 3,4 C 0,7 C 80 % 993,2 hPa 0,0 l/m 0 min 0 min 0,0 UV-I 0 W/m 0,0 km/h (0 Bft)
18.03.2013 22:26 3,4 C 0,7 C 80 % 993,2 hPa 0,0 l/m 0 min 0 min 0,0 UV-I 0 W/m 0,0 km/h (0 Bft)
18.03.2013 22:28 3,4 C 0,7 C 81 % 993,3 hPa 0,0 l/m 0 min 0 min 0,0 UV-I 0 W/m 0,0 km/h (0 Bft)
18.03.2013 22:30 3,3 C 0,7 C 81 % 993,3 hPa 0,0 l/m 0 min 0 min 0,0 UV-I 0 W/m 0,0 km/h (0 Bft)
18.03.2013 22:32 3,3 C 0,7 C 81 % 993,3 hPa 0,0 l/m 0 min 0 min 0,0 UV-I 0 W/m 0,0 km/h (0 Bft)
18.03.2013 22:34 3,3 C 0,7 C 81 % 993,3 hPa 0,0 l/m 0 min 0 min 0,0 UV-I 0 W/m 0,0 km/h (0 Bft)
18.03.2013 22:36 3,2 C 0,7 C 81 % 993,3 hPa 0,0 l/m 0 min 0 min 0,0 UV-I 0 W/m 0,0 km/h (0 Bft)
18.03.2013 22:38 3,2 C 0,7 C 81 % 993,3 hPa 0,0 l/m 0 min 0 min 0,0 UV-I 0 W/m 0,0 km/h (0 Bft)
18.03.2013 22:40 3,2 C 0,1 C 81 % 993,3 hPa 0,0 l/m 0 min 0 min 0,0 UV-I 0 W/m 0,0 km/h (0 Bft)
18.03.2013 22:42 3,1 C 0,1 C 82 % 993,3 hPa 0,0 l/m 0 min 0 min 0,0 UV-I 0 W/m 0,0 km/h (0 Bft)
18.03.2013 22:44 3,1 C 0,1 C 82 % 993,3 hPa 0,0 l/m 0 min 0 min 0,0 UV-I 0 W/m 0,0 km/h (0 Bft)
18.03.2013 22:46 3,1 C 0,1 C 82 % 993,4 hPa 0,0 l/m 0 min 0 min 0,0 UV-I 0 W/m 0,0 km/h (0 Bft)
18.03.2013 22:48 3,0 C 0,1 C 82 % 993,3 hPa 0,0 l/m 0 min 0 min 0,0 UV-I 0 W/m 0,0 km/h (0 Bft)
18.03.2013 22:50 3,0 C 0,1 C 83 % 993,3 hPa 0,0 l/m 0 min 0 min 0,0 UV-I 0 W/m 0,0 km/h (0 Bft)
18.03.2013 22:52 2,9 C 0,1 C 83 % 993,3 hPa 0,0 l/m 0 min 0 min 0,0 UV-I 0 W/m 0,0 km/h (0 Bft)
18.03.2013 22:54 2,9 C 0,1 C 83 % 993,3 hPa 0,0 l/m 0 min 0 min 0,0 UV-I 0 W/m 0,0 km/h (0 Bft)
18.03.2013 22:56 2,9 C 0,1 C 83 % 993,3 hPa 0,0 l/m 0 min 0 min 0,0 UV-I 0 W/m 0,0 km/h (0 Bft)
18.03.2013 22:58 2,8 C 0,1 C 83 % 993,2 hPa 0,0 l/m 0 min 0 min 0,0 UV-I 0 W/m 0,0 km/h (0 Bft)
18.03.2013 23:00 2,8 C 0,1 C 83 % 993,3 hPa 0,0 l/m 0 min 0 min 0,0 UV-I 0 W/m 0,0 km/h (0 Bft)
18.03.2013 23:02 2,8 C 0,1 C 83 % 993,3 hPa 0,0 l/m 0 min 0 min 0,0 UV-I 0 W/m 0,0 km/h (0 Bft)
18.03.2013 23:04 2,7 C 0,1 C 83 % 993,3 hPa 0,0 l/m 0 min 0 min 0,0 UV-I 0 W/m 0,0 km/h (0 Bft)
18.03.2013 23:06 2,7 C 0,1 C 83 % 993,3 hPa 0,0 l/m 0 min 0 min 0,0 UV-I 0 W/m 0,0 km/h (0 Bft)
18.03.2013 23:08 2,7 C -0,4 C 83 % 993,3 hPa 0,0 l/m 0 min 0 min 0,0 UV-I 0 W/m 0,0 km/h (0 Bft)
18.03.2013 23:10 2,6 C -0,4 C 83 % 993,2 hPa 0,0 l/m 0 min 0 min 0,0 UV-I 0 W/m 0,0 km/h (0 Bft)
18.03.2013 23:12 2,6 C -0,4 C 83 % 993,2 hPa 0,0 l/m 0 min 0 min 0,0 UV-I 0 W/m 0,0 km/h (0 Bft)
18.03.2013 23:14 2,5 C -0,4 C 83 % 993,3 hPa 0,0 l/m 0 min 0 min 0,0 UV-I 0 W/m 0,0 km/h (0 Bft)
18.03.2013 23:16 2,5 C -0,4 C 83 % 993,3 hPa 0,0 l/m 0 min 0 min 0,0 UV-I 0 W/m 0,0 km/h (0 Bft)
18.03.2013 23:18 2,4 C -0,4 C 83 % 993,3 hPa 0,0 l/m 0 min 0 min 0,0 UV-I 0 W/m 0,0 km/h (0 Bft)
18.03.2013 23:20 2,4 C -0,4 C 83 % 993,3 hPa 0,0 l/m 0 min 0 min 0,0 UV-I 0 W/m 0,0 km/h (0 Bft)
18.03.2013 23:22 2,3 C -0,4 C 83 % 993,3 hPa 0,0 l/m 0 min 0 min 0,0 UV-I 0 W/m 0,0 km/h (0 Bft)
18.03.2013 23:24 2,3 C -0,4 C 83 % 993,3 hPa 0,0 l/m 0 min 0 min 0,0 UV-I 0 W/m 0,0 km/h (0 Bft)
18.03.2013 23:26 2,3 C -0,4 C 83 % 993,3 hPa 0,0 l/m 0 min 0 min 0,0 UV-I 0 W/m 0,0 km/h (0 Bft)
18.03.2013 23:28 2,2 C -0,4 C 83 % 993,3 hPa 0,0 l/m 0 min 0 min 0,0 UV-I 0 W/m 0,0 km/h (0 Bft)
18.03.2013 23:30 2,2 C -0,4 C 83 % 993,3 hPa 0,0 l/m 0 min 0 min 0,0 UV-I 0 W/m 0,0 km/h (0 Bft)
18.03.2013 23:32 2,2 C -0,4 C 83 % 993,4 hPa 0,0 l/m 0 min 0 min 0,0 UV-I 0 W/m 0,0 km/h (0 Bft)
18.03.2013 23:34 2,1 C -0,4 C 84 % 993,3 hPa 0,0 l/m 0 min 0 min 0,0 UV-I 0 W/m 0,0 km/h (0 Bft)
18.03.2013 23:36 2,1 C -0,4 C 84 % 993,3 hPa 0,0 l/m 0 min 0 min 0,0 UV-I 0 W/m 0,0 km/h (0 Bft)
18.03.2013 23:38 2,0 C -1,0 C 84 % 993,3 hPa 0,0 l/m 0 min 0 min 0,0 UV-I 0 W/m 0,0 km/h (0 Bft)
18.03.2013 23:40 1,9 C -1,0 C 84 % 993,3 hPa 0,0 l/m 0 min 0 min 0,0 UV-I 0 W/m 0,0 km/h (0 Bft)
18.03.2013 23:42 1,9 C -1,0 C 84 % 993,3 hPa 0,0 l/m 0 min 0 min 0,0 UV-I 0 W/m 0,0 km/h (0 Bft)
18.03.2013 23:44 1,9 C -1,0 C 85 % 993,3 hPa 0,0 l/m 0 min 0 min 0,0 UV-I 0 W/m 0,0 km/h (0 Bft)
18.03.2013 23:46 1,8 C -1,0 C 85 % 993,3 hPa 0,0 l/m 0 min 0 min 0,0 UV-I 0 W/m 0,0 km/h (0 Bft)
18.03.2013 23:48 1,8 C -1,0 C 85 % 993,3 hPa 0,0 l/m 0 min 0 min 0,0 UV-I 0 W/m 0,0 km/h (0 Bft)
18.03.2013 23:50 1,8 C -1,0 C 85 % 993,3 hPa 0,0 l/m 0 min 0 min 0,0 UV-I 0 W/m 0,0 km/h (0 Bft)
18.03.2013 23:52 1,7 C -1,0 C 85 % 993,3 hPa 0,0 l/m 0 min 0 min 0,0 UV-I 0 W/m 0,0 km/h (0 Bft)
18.03.2013 23:54 1,7 C -1,0 C 86 % 993,3 hPa 0,0 l/m 0 min 0 min 0,0 UV-I 0 W/m 0,0 km/h (0 Bft)
18.03.2013 23:56 1,7 C -1,0 C 86 % 993,3 hPa 0,0 l/m 0 min 0 min 0,0 UV-I 0 W/m 0,0 km/h (0 Bft)
18.03.2013 23:58 1,7 C -1,0 C 86 % 993,3 hPa 0,0 l/m 0 min 0 min 0,0 UV-I 0 W/m 0,0 km/h (0 Bft)
_ Min-Zeit 23:52 23:38 12:58 14:54 - - - - - 02:52
Minimum _ 1,7 C -1,0 C 50 % 991,7 hPa - - - - - 0,0 km/h (0 Bft)
_ Max-Zeit 12:56 14:20 00:00 08:16 00:00 08:04 00:00 12:26 13:28 08:32
Maximum _ 12,1 C 11,8 C 93 % 994,3 hPa 0,0 l/m 2 min 0 min 1,6 UV-I 759 W/m 33,5 km/h
S-SO (5 Bft)
Durchschnitt _ 6,6 C 4,7 C 74 % 992,9 hPa #0,0 l/m #5:20 h #0 min. 1,1 UV-I 255 W/m 8,7 km/h (2 Bft)
© 2013 W. Hausmann